Time,TemperatureF,DewpointF,PressureIn,WindDirection,WindDirectionDegrees,WindSpeedMPH,WindSpeedGustMPH,Humidity,HourlyPrecipIn,Conditions,Clouds,dailyrainin,SoftwareType,DateUTC
2013-07-29 00:02:00,81.4,72.7,29.80,SE,130,5.0,5.0,75,0.00,,,0.00,Wunderground v.1.15,2013-07-29 05:02:00,
2013-07-29 00:04:00,81.4,72.7,29.80,SE,136,5.0,6.0,75,0.00,,,0.00,Wunderground v.1.15,2013-07-29 05:04:00,
2013-07-29 00:06:00,81.2,72.9,29.80,ESE,109,5.0,7.0,76,0.00,,,0.00,Wunderground v.1.15,2013-07-29 05:06:00,
2013-07-29 00:07:00,81.2,72.9,29.80,SSE,155,6.0,7.0,76,0.00,,,0.00,Wunderground v.1.15,2013-07-29 05:07:00,
2013-07-29 00:08:00,81.2,72.9,29.80,SE,130,6.0,7.0,76,0.00,,,0.00,Wunderground v.1.15,2013-07-29 05:08:00,
2013-07-29 00:09:00,81.2,72.9,29.80,SSE,151,5.0,7.0,76,0.00,,,0.00,Wunderground v.1.15,2013-07-29 05:09:00,
2013-07-29 00:12:00,81.1,72.8,29.80,SSE,150,5.0,8.0,76,0.00,,,0.00,Wunderground v.1.15,2013-07-29 05:12:00,
2013-07-29 00:13:00,81.1,72.8,29.80,ESE,123,5.0,8.0,76,0.00,,,0.00,Wunderground v.1.15,2013-07-29 05:13:00,
2013-07-29 00:17:00,80.9,73.0,29.81,ESE,114,5.0,8.0,77,0.00,,,0.00,Wunderground v.1.15,2013-07-29 05:17:00,
2013-07-29 00:19:00,80.9,73.0,29.81,SSE,152,5.0,8.0,77,0.00,,,0.00,Wunderground v.1.15,2013-07-29 05:19:00,
2013-07-29 00:21:00,80.9,73.0,29.81,SE,140,4.0,7.0,77,0.00,,,0.00,Wunderground v.1.15,2013-07-29 05:21:00,
2013-07-29 00:23:00,80.7,72.8,29.81,SSE,160,5.0,9.0,77,0.00,,,0.00,Wunderground v.1.15,2013-07-29 05:23:00,
2013-07-29 00:24:00,80.7,72.8,29.81,SE,130,5.0,9.0,77,0.00,,,0.00,Wunderground v.1.15,2013-07-29 05:24:00,
2013-07-29 00:25:00,80.7,73.2,29.81,ESE,117,5.0,9.0,78,0.00,,,0.00,Wunderground v.1.15,2013-07-29 05:25:00,
2013-07-29 00:27:00,80.7,73.2,29.81,SE,126,5.0,9.0,78,0.00,,,0.00,Wunderground v.1.15,2013-07-29 05:27:00,
2013-07-29 00:29:00,80.5,73.0,29.81,SE,144,5.0,9.0,78,0.00,,,0.00,Wunderground v.1.15,2013-07-29 05:29:00,
2013-07-29 00:31:00,80.5,73.0,29.81,SSE,148,5.0,7.0,78,0.00,,,0.00,Wunderground v.1.15,2013-07-29 05:31:00,
2013-07-29 00:32:00,80.5,73.0,29.82,SE,138,5.0,7.0,78,0.00,,,0.00,Wunderground v.1.15,2013-07-29 05:32:00,
2013-07-29 00:34:00,80.3,72.8,29.82,SE,128,5.0,8.0,78,0.00,,,0.00,Wunderground v.1.15,2013-07-29 05:34:00,
2013-07-29 00:38:00,80.3,73.2,29.82,SE,137,6.0,8.0,79,0.00,,,0.00,Wunderground v.1.15,2013-07-29 05:38:00,
2013-07-29 00:40:00,80.3,73.2,29.82,SSE,168,6.0,13.0,79,0.00,,,0.00,Wunderground v.1.15,2013-07-29 05:40:00,
2013-07-29 00:42:00,80.3,73.2,29.82,SE,131,6.0,13.0,79,0.00,,,0.00,Wunderground v.1.15,2013-07-29 05:42:00,
2013-07-29 00:43:00,80.3,73.2,29.82,SE,126,6.0,13.0,79,0.00,,,0.00,Wunderground v.1.15,2013-07-29 05:43:00,
2013-07-29 00:48:00,80.3,73.2,29.82,SE,137,6.0,13.0,79,0.00,,,0.00,Wunderground v.1.15,2013-07-29 05:48:00,
2013-07-29 00:49:00,80.3,73.2,29.82,SE,141,6.0,13.0,79,0.00,,,0.00,Wunderground v.1.15,2013-07-29 05:49:00,
2013-07-29 00:54:00,80.1,73.4,29.82,ESE,121,5.0,7.0,80,0.00,,,0.00,Wunderground v.1.15,2013-07-29 05:54:00,
2013-07-29 00:55:00,80.1,73.4,29.82,SE,141,5.0,7.0,80,0.00,,,0.00,Wunderground v.1.15,2013-07-29 05:55:00,
2013-07-29 00:58:00,80.1,73.4,29.82,SSE,154,5.0,7.0,80,0.00,,,0.00,Wunderground v.1.15,2013-07-29 05:58:00,
2013-07-29 00:59:00,80.1,73.4,29.82,ESE,109,5.0,7.0,80,0.00,,,0.00,Wunderground v.1.15,2013-07-29 05:59:00,
2013-07-29 01:01:00,80.1,73.4,29.82,SSE,151,5.0,6.0,80,0.00,,,0.00,Wunderground v.1.15,2013-07-29 06:01:00,
2013-07-29 01:03:00,80.1,73.4,29.82,SE,133,5.0,8.0,80,0.00,,,0.00,Wunderground v.1.15,2013-07-29 06:03:00,
2013-07-29 01:05:00,80.1,73.4,29.82,SE,144,5.0,9.0,80,0.00,,,0.00,Wunderground v.1.15,2013-07-29 06:05:00,
2013-07-29 01:07:00,80.1,73.4,29.82,SSE,147,5.0,9.0,80,0.00,,,0.00,Wunderground v.1.15,2013-07-29 06:07:00,
2013-07-29 01:08:00,80.1,73.4,29.82,SSE,158,5.0,10.0,80,0.00,,,0.00,Wunderground v.1.15,2013-07-29 06:08:00,
2013-07-29 01:11:00,80.1,73.4,29.82,SE,138,6.0,7.0,80,0.00,,,0.00,Wunderground v.1.15,2013-07-29 06:11:00,
2013-07-29 01:12:00,79.9,73.2,29.82,SE,141,6.0,8.0,80,0.00,,,0.00,Wunderground v.1.15,2013-07-29 06:12:00,
2013-07-29 01:15:00,79.9,73.5,29.82,SE,145,7.0,14.0,81,0.00,,,0.00,Wunderground v.1.15,2013-07-29 06:15:00,
2013-07-29 01:17:00,79.9,73.5,29.81,ESE,120,7.0,14.0,81,0.00,,,0.00,Wunderground v.1.15,2013-07-29 06:17:00,
2013-07-29 01:20:00,79.9,73.5,29.81,SSE,148,7.0,14.0,81,0.00,,,0.00,Wunderground v.1.15,2013-07-29 06:20:00,
2013-07-29 01:22:00,79.9,73.5,29.81,SE,144,7.0,9.0,81,0.00,,,0.00,Wunderground v.1.15,2013-07-29 06:22:00,
2013-07-29 01:27:00,79.9,73.5,29.81,South,172,5.0,9.0,81,0.00,,,0.00,Wunderground v.1.15,2013-07-29 06:27:00,
2013-07-29 01:28:00,79.9,73.5,29.81,SE,131,5.0,9.0,81,0.00,,,0.00,Wunderground v.1.15,2013-07-29 06:28:00,
2013-07-29 01:30:00,79.9,73.5,29.81,SE,130,6.0,6.0,81,0.00,,,0.00,Wunderground v.1.15,2013-07-29 06:30:00,
2013-07-29 01:32:00,79.9,73.5,29.81,SSE,154,6.0,12.0,81,0.00,,,0.00,Wunderground v.1.15,2013-07-29 06:32:00,
2013-07-29 01:35:00,79.9,73.5,29.81,ESE,120,6.0,12.0,81,0.00,,,0.00,Wunderground v.1.15,2013-07-29 06:35:00,
2013-07-29 01:37:00,79.9,73.5,29.81,SE,131,6.0,12.0,81,0.00,,,0.00,Wunderground v.1.15,2013-07-29 06:37:00,
2013-07-29 01:40:00,79.9,73.5,29.81,SE,130,6.0,6.0,81,0.00,,,0.00,Wunderground v.1.15,2013-07-29 06:40:00,
2013-07-29 01:41:00,79.9,73.5,29.81,ESE,120,6.0,6.0,81,0.00,,,0.00,Wunderground v.1.15,2013-07-29 06:41:00,
2013-07-29 01:44:00,79.9,73.9,29.81,SSE,150,6.0,7.0,82,0.00,,,0.00,Wunderground v.1.15,2013-07-29 06:44:00,
2013-07-29 01:46:00,79.9,73.9,29.82,SE,141,6.0,10.0,82,0.00,,,0.00,Wunderground v.1.15,2013-07-29 06:46:00,
2013-07-29 01:50:00,79.8,73.8,29.82,SSE,164,6.0,7.0,82,0.00,,,0.00,Wunderground v.1.15,2013-07-29 06:50:00,
2013-07-29 01:52:00,79.8,73.8,29.82,ESE,120,6.0,7.0,82,0.00,,,0.00,Wunderground v.1.15,2013-07-29 06:52:00,
2013-07-29 01:56:00,79.8,73.8,29.82,SE,128,6.0,8.0,82,0.00,,,0.00,Wunderground v.1.15,2013-07-29 06:56:00,
2013-07-29 01:57:00,79.8,73.8,29.82,SE,134,5.0,8.0,82,0.00,,,0.00,Wunderground v.1.15,2013-07-29 06:57:00,
2013-07-29 01:59:00,79.8,73.8,29.82,SSE,158,5.0,9.0,82,0.00,,,0.00,Wunderground v.1.15,2013-07-29 06:59:00,
2013-07-29 02:02:00,79.8,73.8,29.82,SSE,164,5.0,6.0,82,0.00,,,0.00,Wunderground v.1.15,2013-07-29 07:02:00,
2013-07-29 02:04:00,79.8,73.8,29.82,South,172,6.0,7.0,82,0.00,,,0.00,Wunderground v.1.15,2013-07-29 07:04:00,
2013-07-29 02:05:00,79.8,73.8,29.82,SE,130,6.0,7.0,82,0.00,,,0.00,Wunderground v.1.15,2013-07-29 07:05:00,
2013-07-29 02:08:00,79.8,73.8,29.82,SE,141,5.0,7.0,82,0.00,,,0.00,Wunderground v.1.15,2013-07-29 07:08:00,
2013-07-29 02:11:00,79.8,73.8,29.82,SE,141,4.0,5.0,82,0.00,,,0.00,Wunderground v.1.15,2013-07-29 07:11:00,
2013-07-29 02:12:00,79.8,73.8,29.82,ESE,123,4.0,5.0,82,0.00,,,0.00,Wunderground v.1.15,2013-07-29 07:12:00,
2013-07-29 02:13:00,79.8,73.8,29.82,SSE,148,5.0,7.0,82,0.00,,,0.00,Wunderground v.1.15,2013-07-29 07:13:00,
2013-07-29 02:17:00,79.8,73.8,29.82,SE,144,5.0,7.0,82,0.00,,,0.00,Wunderground v.1.15,2013-07-29 07:17:00,
2013-07-29 02:18:00,79.8,73.8,29.82,SSE,154,5.0,7.0,82,0.00,,,0.00,Wunderground v.1.15,2013-07-29 07:18:00,
2013-07-29 02:19:00,79.8,73.8,29.82,SE,134,5.0,7.0,82,0.00,,,0.00,Wunderground v.1.15,2013-07-29 07:19:00,
2013-07-29 02:24:00,79.8,73.8,29.82,ESE,109,5.0,6.0,82,0.00,,,0.00,Wunderground v.1.15,2013-07-29 07:24:00,
2013-07-29 02:25:00,79.8,73.8,29.82,SE,144,5.0,6.0,82,0.00,,,0.00,Wunderground v.1.15,2013-07-29 07:25:00,
2013-07-29 02:26:00,79.8,73.8,29.82,SE,144,4.0,6.0,82,0.00,,,0.00,Wunderground v.1.15,2013-07-29 07:26:00,
2013-07-29 02:31:00,79.6,73.6,29.82,South,189,4.0,8.0,82,0.00,,,0.00,Wunderground v.1.15,2013-07-29 07:31:00,
2013-07-29 02:32:00,79.6,73.6,29.82,South,174,4.0,8.0,82,0.00,,,0.00,Wunderground v.1.15,2013-07-29 07:32:00,
2013-07-29 02:33:00,79.6,73.6,29.82,SE,136,4.0,8.0,82,0.00,,,0.00,Wunderground v.1.15,2013-07-29 07:33:00,
2013-07-29 02:37:00,79.6,73.6,29.82,SE,136,5.0,8.0,82,0.00,,,0.00,Wunderground v.1.15,2013-07-29 07:37:00,
2013-07-29 02:38:00,79.6,73.6,29.82,SSE,151,5.0,12.0,82,0.00,,,0.00,Wunderground v.1.15,2013-07-29 07:38:00,
2013-07-29 02:39:00,79.6,73.6,29.82,SSW,196,5.0,12.0,82,0.00,,,0.00,Wunderground v.1.15,2013-07-29 07:39:00,
2013-07-29 02:41:00,79.6,73.6,29.82,SSE,157,5.0,5.0,82,0.00,,,0.00,Wunderground v.1.15,2013-07-29 07:41:00,
2013-07-29 02:42:00,79.6,73.6,29.82,SSE,167,5.0,10.0,82,0.00,,,0.00,Wunderground v.1.15,2013-07-29 07:42:00,
2013-07-29 02:43:00,79.6,73.6,29.82,SSE,160,5.0,10.0,82,0.00,,,0.00,Wunderground v.1.15,2013-07-29 07:43:00,
2013-07-29 02:45:00,79.6,73.6,29.82,SE,124,6.0,10.0,82,0.00,,,0.00,Wunderground v.1.15,2013-07-29 07:45:00,
2013-07-29 02:47:00,79.6,73.6,29.82,ESE,120,6.0,10.0,82,0.00,,,0.00,Wunderground v.1.15,2013-07-29 07:47:00,
2013-07-29 02:50:00,79.6,73.6,29.82,East,100,5.0,10.0,82,0.00,,,0.00,Wunderground v.1.15,2013-07-29 07:50:00,
2013-07-29 02:51:00,79.6,73.6,29.82,SSE,157,6.0,8.0,82,0.00,,,0.00,Wunderground v.1.15,2013-07-29 07:51:00,
2013-07-29 02:52:00,79.6,73.6,29.82,South,169,6.0,8.0,82,0.00,,,0.00,Wunderground v.1.15,2013-07-29 07:52:00,
2013-07-29 02:55:00,79.6,73.6,29.82,SSE,151,6.0,8.0,82,0.00,,,0.00,Wunderground v.1.15,2013-07-29 07:55:00,
2013-07-29 02:57:00,79.4,73.4,29.82,SE,141,6.0,13.0,82,0.00,,,0.00,Wunderground v.1.15,2013-07-29 07:57:00,
2013-07-29 02:58:00,79.4,73.4,29.82,SSE,158,6.0,13.0,82,0.00,,,0.00,Wunderground v.1.15,2013-07-29 07:58:00,
2013-07-29 03:00:00,79.4,73.4,29.82,SE,126,6.0,13.0,82,0.00,,,0.00,Wunderground v.1.15,2013-07-29 08:00:00,
2013-07-29 03:01:00,79.4,73.4,29.82,SSE,164,6.0,8.0,82,0.00,,,0.00,Wunderground v.1.15,2013-07-29 08:01:00,
2013-07-29 03:02:00,79.4,73.4,29.82,SE,124,5.0,8.0,82,0.00,,,0.00,Wunderground v.1.15,2013-07-29 08:02:00,
2013-07-29 03:05:00,79.4,73.4,29.82,SE,130,6.0,9.0,82,0.00,,,0.00,Wunderground v.1.15,2013-07-29 08:05:00,
2013-07-29 03:06:00,79.4,73.4,29.82,SE,140,6.0,9.0,82,0.00,,,0.00,Wunderground v.1.15,2013-07-29 08:06:00,
2013-07-29 03:07:00,79.4,73.4,29.82,SE,134,5.0,9.0,82,0.00,,,0.00,Wunderground v.1.15,2013-07-29 08:07:00,
2013-07-29 03:08:00,79.4,73.4,29.82,SE,145,5.0,9.0,82,0.00,,,0.00,Wunderground v.1.15,2013-07-29 08:08:00,
2013-07-29 03:12:00,79.4,73.4,29.82,SE,143,5.0,5.0,82,0.00,,,0.00,Wunderground v.1.15,2013-07-29 08:12:00,
2013-07-29 03:14:00,79.4,73.4,29.82,SE,145,4.0,5.0,82,0.00,,,0.00,Wunderground v.1.15,2013-07-29 08:14:00,
2013-07-29 03:15:00,79.4,73.4,29.82,SE,130,4.0,5.0,82,0.00,,,0.00,Wunderground v.1.15,2013-07-29 08:15:00,
2013-07-29 03:19:00,79.2,73.2,29.82,SSE,164,5.0,6.0,82,0.00,,,0.00,Wunderground v.1.15,2013-07-29 08:19:00,
2013-07-29 03:21:00,79.2,73.2,29.82,ESE,120,5.0,7.0,82,0.00,,,0.00,Wunderground v.1.15,2013-07-29 08:21:00,
2013-07-29 03:22:00,79.2,73.2,29.82,SSE,167,5.0,7.0,82,0.00,,,0.00,Wunderground v.1.15,2013-07-29 08:22:00,
2013-07-29 03:25:00,79.2,73.2,29.82,SE,134,5.0,7.0,82,0.00,,,0.00,Wunderground v.1.15,2013-07-29 08:25:00,
2013-07-29 03:27:00,79.2,73.2,29.82,SSE,147,5.0,8.0,82,0.00,,,0.00,Wunderground v.1.15,2013-07-29 08:27:00,
2013-07-29 03:28:00,79.2,73.2,29.82,SE,145,5.0,9.0,82,0.00,,,0.00,Wunderground v.1.15,2013-07-29 08:28:00,
2013-07-29 03:29:00,79.2,73.2,29.82,SSE,161,5.0,9.0,82,0.00,,,0.00,Wunderground v.1.15,2013-07-29 08:29:00,
2013-07-29 03:31:00,79.2,73.2,29.82,SE,134,5.0,9.0,82,0.00,,,0.00,Wunderground v.1.15,2013-07-29 08:31:00,
2013-07-29 03:34:00,79.2,73.2,29.82,ESE,119,6.0,6.0,82,0.00,,,0.00,Wunderground v.1.15,2013-07-29 08:34:00,
2013-07-29 03:36:00,79.2,73.2,29.82,SE,133,5.0,10.0,82,0.00,,,0.00,Wunderground v.1.15,2013-07-29 08:36:00,
2013-07-29 03:39:00,79.2,73.2,29.82,SSE,147,5.0,10.0,82,0.00,,,0.00,Wunderground v.1.15,2013-07-29 08:39:00,
2013-07-29 03:41:00,79.2,73.2,29.82,SE,131,5.0,5.0,82,0.00,,,0.00,Wunderground v.1.15,2013-07-29 08:41:00,
2013-07-29 03:42:00,79.2,73.2,29.82,SE,133,5.0,5.0,82,0.00,,,0.00,Wunderground v.1.15,2013-07-29 08:42:00,
2013-07-29 03:47:00,79.2,73.2,29.82,SSE,150,4.0,7.0,82,0.00,,,0.00,Wunderground v.1.15,2013-07-29 08:47:00,
2013-07-29 03:48:00,79.2,73.2,29.82,SE,130,4.0,11.0,82,0.00,,,0.00,Wunderground v.1.15,2013-07-29 08:48:00,
2013-07-29 03:49:00,79.0,73.0,29.82,SSW,203,4.0,11.0,82,0.00,,,0.00,Wunderground v.1.15,2013-07-29 08:49:00,
2013-07-29 03:51:00,79.0,73.0,29.82,SSE,161,5.0,11.0,82,0.00,,,0.00,Wunderground v.1.15,2013-07-29 08:51:00,
2013-07-29 03:54:00,79.0,72.7,29.82,SSE,152,6.0,10.0,81,0.00,,,0.00,Wunderground v.1.15,2013-07-29 08:54:00,
2013-07-29 03:56:00,79.2,72.9,29.82,SSW,213,6.0,10.0,81,0.00,,,0.00,Wunderground v.1.15,2013-07-29 08:56:00,
2013-07-29 03:57:00,79.2,72.9,29.82,SSE,160,6.0,10.0,81,0.00,,,0.00,Wunderground v.1.15,2013-07-29 08:57:00,
2013-07-29 03:58:00,79.2,72.9,29.82,SE,145,6.0,10.0,81,0.00,,,0.00,Wunderground v.1.15,2013-07-29 08:58:00,
2013-07-29 04:01:00,79.2,72.9,29.82,SSE,155,5.0,5.0,81,0.00,,,0.00,Wunderground v.1.15,2013-07-29 09:01:00,
2013-07-29 04:02:00,79.2,72.9,29.82,SE,128,4.0,8.0,81,0.00,,,0.00,Wunderground v.1.15,2013-07-29 09:02:00,
2013-07-29 04:04:00,79.2,72.9,29.82,South,188,4.0,8.0,81,0.00,,,0.00,Wunderground v.1.15,2013-07-29 09:04:00,
2013-07-29 04:08:00,79.2,72.9,29.82,SSE,165,5.0,8.0,81,0.00,,,0.00,Wunderground v.1.15,2013-07-29 09:08:00,
2013-07-29 04:09:00,79.2,72.9,29.82,South,176,5.0,8.0,81,0.00,,,0.00,Wunderground v.1.15,2013-07-29 09:09:00,
2013-07-29 04:11:00,79.2,72.9,29.82,SE,133,5.0,8.0,81,0.00,,,0.00,Wunderground v.1.15,2013-07-29 09:11:00,
2013-07-29 04:13:00,79.0,72.7,29.82,South,171,5.0,5.0,81,0.00,,,0.00,Wunderground v.1.15,2013-07-29 09:13:00,
2013-07-29 04:14:00,79.0,72.7,29.82,ESE,109,5.0,10.0,81,0.00,,,0.00,Wunderground v.1.15,2013-07-29 09:14:00,
2013-07-29 04:17:00,79.0,72.7,29.82,ESE,123,5.0,12.0,81,0.00,,,0.00,Wunderground v.1.15,2013-07-29 09:17:00,
2013-07-29 04:19:00,79.0,72.7,29.82,SE,134,6.0,12.0,81,0.00,,,0.00,Wunderground v.1.15,2013-07-29 09:19:00,
2013-07-29 04:22:00,79.0,72.7,29.82,SE,127,6.0,6.0,81,0.00,,,0.00,Wunderground v.1.15,2013-07-29 09:22:00,
2013-07-29 04:24:00,79.0,73.0,29.82,SSE,147,6.0,6.0,82,0.00,,,0.00,Wunderground v.1.15,2013-07-29 09:24:00,
2013-07-29 04:25:00,79.0,73.0,29.82,SSE,165,6.0,6.0,82,0.00,,,0.00,Wunderground v.1.15,2013-07-29 09:25:00,
2013-07-29 04:28:00,78.8,72.8,29.82,South,175,4.0,7.0,82,0.00,,,0.00,Wunderground v.1.15,2013-07-29 09:28:00,
2013-07-29 04:31:00,78.8,72.8,29.82,South,171,5.0,7.0,82,0.00,,,0.00,Wunderground v.1.15,2013-07-29 09:31:00,
2013-07-29 04:33:00,78.8,72.8,29.82,South,178,5.0,5.0,82,0.00,,,0.00,Wunderground v.1.15,2013-07-29 09:33:00,
2013-07-29 04:34:00,78.8,72.8,29.82,SE,124,5.0,5.0,82,0.00,,,0.00,Wunderground v.1.15,2013-07-29 09:34:00,
2013-07-29 04:36:00,78.8,72.8,29.82,South,178,5.0,5.0,82,0.00,,,0.00,Wunderground v.1.15,2013-07-29 09:36:00,
2013-07-29 04:38:00,78.8,72.8,29.82,SSE,162,5.0,5.0,82,0.00,,,0.00,Wunderground v.1.15,2013-07-29 09:38:00,
2013-07-29 04:42:00,78.6,72.6,29.82,SSE,168,5.0,8.0,82,0.00,,,0.00,Wunderground v.1.15,2013-07-29 09:42:00,
2013-07-29 04:44:00,78.6,72.6,29.82,SE,143,5.0,8.0,82,0.00,,,0.00,Wunderground v.1.15,2013-07-29 09:44:00,
2013-07-29 04:45:00,78.8,72.8,29.82,SSE,155,4.0,8.0,82,0.00,,,0.00,Wunderground v.1.15,2013-07-29 09:45:00,
2013-07-29 04:47:00,78.8,72.8,29.82,SSE,154,4.0,8.0,82,0.00,,,0.00,Wunderground v.1.15,2013-07-29 09:47:00,
2013-07-29 04:48:00,78.6,72.6,29.82,SSE,155,5.0,8.0,82,0.00,,,0.00,Wunderground v.1.15,2013-07-29 09:48:00,
2013-07-29 04:49:00,78.6,72.6,29.82,SSE,147,5.0,8.0,82,0.00,,,0.00,Wunderground v.1.15,2013-07-29 09:49:00,
2013-07-29 04:51:00,78.6,72.6,29.82,South,182,5.0,8.0,82,0.00,,,0.00,Wunderground v.1.15,2013-07-29 09:51:00,
2013-07-29 04:52:00,78.6,72.6,29.82,SSE,157,4.0,8.0,82,0.00,,,0.00,Wunderground v.1.15,2013-07-29 09:52:00,
2013-07-29 04:54:00,78.6,72.6,29.82,SSE,152,5.0,8.0,82,0.00,,,0.00,Wunderground v.1.15,2013-07-29 09:54:00,
2013-07-29 04:55:00,78.6,72.6,29.82,SE,140,5.0,8.0,82,0.00,,,0.00,Wunderground v.1.15,2013-07-29 09:55:00,
2013-07-29 04:58:00,78.6,72.6,29.82,SE,138,5.0,12.0,82,0.00,,,0.00,Wunderground v.1.15,2013-07-29 09:58:00,
2013-07-29 04:59:00,78.6,72.6,29.82,ESE,117,5.0,12.0,82,0.00,,,0.00,Wunderground v.1.15,2013-07-29 09:59:00,
2013-07-29 05:01:00,78.5,72.5,29.82,SE,127,6.0,7.0,82,0.00,,,0.00,Wunderground v.1.15,2013-07-29 10:01:00,
2013-07-29 05:03:00,78.5,72.5,29.83,South,178,6.0,10.0,82,0.00,,,0.00,Wunderground v.1.15,2013-07-29 10:03:00,
2013-07-29 05:06:00,78.5,72.5,29.83,SSE,154,5.0,10.0,82,0.00,,,0.00,Wunderground v.1.15,2013-07-29 10:06:00,
2013-07-29 05:07:00,78.5,72.5,29.83,SSE,161,6.0,10.0,82,0.00,,,0.00,Wunderground v.1.15,2013-07-29 10:07:00,
2013-07-29 05:08:00,78.5,72.5,29.83,SSE,157,6.0,10.0,82,0.00,,,0.00,Wunderground v.1.15,2013-07-29 10:08:00,
2013-07-29 05:09:00,78.5,72.5,29.83,SSW,192,5.0,10.0,82,0.00,,,0.00,Wunderground v.1.15,2013-07-29 10:09:00,
2013-07-29 05:13:00,78.3,72.3,29.83,SSW,192,5.0,7.0,82,0.00,,,0.00,Wunderground v.1.15,2013-07-29 10:13:00,
2013-07-29 05:16:00,78.3,72.3,29.83,South,176,6.0,7.0,82,0.00,,,0.00,Wunderground v.1.15,2013-07-29 10:16:00,
2013-07-29 05:17:00,78.3,72.3,29.83,SE,131,6.0,11.0,82,0.00,,,0.00,Wunderground v.1.15,2013-07-29 10:17:00,
2013-07-29 05:18:00,78.3,72.3,29.83,South,186,6.0,11.0,82,0.00,,,0.00,Wunderground v.1.15,2013-07-29 10:18:00,
2013-07-29 05:21:00,78.3,72.3,29.83,SSE,160,5.0,6.0,82,0.00,,,0.00,Wunderground v.1.15,2013-07-29 10:21:00,
2013-07-29 05:22:00,78.1,72.2,29.83,SSE,160,5.0,6.0,82,0.00,,,0.00,Wunderground v.1.15,2013-07-29 10:22:00,
2013-07-29 05:23:00,78.1,72.2,29.83,SSW,199,5.0,6.0,82,0.00,,,0.00,Wunderground v.1.15,2013-07-29 10:23:00,
2013-07-29 05:27:00,78.1,72.2,29.83,SSE,155,4.0,7.0,82,0.00,,,0.00,Wunderground v.1.15,2013-07-29 10:27:00,
2013-07-29 05:28:00,78.1,72.2,29.83,South,191,4.0,10.0,82,0.00,,,0.00,Wunderground v.1.15,2013-07-29 10:28:00,
2013-07-29 05:29:00,78.1,72.2,29.83,South,169,4.0,10.0,82,0.00,,,0.00,Wunderground v.1.15,2013-07-29 10:29:00,
2013-07-29 05:34:00,78.1,72.2,29.83,South,169,4.0,4.0,82,0.00,,,0.00,Wunderground v.1.15,2013-07-29 10:34:00,
2013-07-29 05:37:00,77.9,72.0,29.83,SE,145,3.0,4.0,82,0.00,,,0.00,Wunderground v.1.15,2013-07-29 10:37:00,
2013-07-29 05:39:00,77.9,72.0,29.83,SE,140,3.0,4.0,82,0.00,,,0.00,Wunderground v.1.15,2013-07-29 10:39:00,
2013-07-29 05:44:00,77.9,72.0,29.83,SSE,157,3.0,8.0,82,0.00,,,0.00,Wunderground v.1.15,2013-07-29 10:44:00,
2013-07-29 05:48:00,77.7,71.8,29.83,SSE,158,4.0,8.0,82,0.00,,,0.00,Wunderground v.1.15,2013-07-29 10:48:00,
2013-07-29 05:51:00,77.7,71.8,29.83,SSE,147,4.0,9.0,82,0.00,,,0.00,Wunderground v.1.15,2013-07-29 10:51:00,
2013-07-29 05:52:00,77.7,71.8,29.83,SSE,157,4.0,4.0,82,0.00,,,0.00,Wunderground v.1.15,2013-07-29 10:52:00,
2013-07-29 05:57:00,77.7,71.8,29.83,SSW,198,3.0,5.0,82,0.00,,,0.00,Wunderground v.1.15,2013-07-29 10:57:00,
2013-07-29 05:58:00,77.7,71.8,29.83,SE,126,3.0,5.0,82,0.00,,,0.00,Wunderground v.1.15,2013-07-29 10:58:00,
2013-07-29 05:59:00,77.7,71.8,29.83,SSE,150,3.0,6.0,82,0.00,,,0.00,Wunderground v.1.15,2013-07-29 10:59:00,
2013-07-29 06:03:00,77.7,72.1,29.83,South,178,3.0,3.0,83,0.00,,,0.00,Wunderground v.1.15,2013-07-29 11:03:00,
2013-07-29 06:06:00,77.7,72.1,29.83,SSE,164,3.0,8.0,83,0.00,,,0.00,Wunderground v.1.15,2013-07-29 11:06:00,
2013-07-29 06:11:00,77.7,72.1,29.83,SSE,158,3.0,8.0,83,0.00,,,0.00,Wunderground v.1.15,2013-07-29 11:11:00,
2013-07-29 06:12:00,77.7,72.1,29.83,SSE,160,3.0,3.0,83,0.00,,,0.00,Wunderground v.1.15,2013-07-29 11:12:00,
2013-07-29 06:13:00,77.6,72.0,29.83,SSE,161,3.0,3.0,83,0.00,,,0.00,Wunderground v.1.15,2013-07-29 11:13:00,
2013-07-29 06:14:00,77.6,72.0,29.83,SSE,162,3.0,3.0,83,0.00,,,0.00,Wunderground v.1.15,2013-07-29 11:14:00,
2013-07-29 06:18:00,77.6,72.4,29.83,SSE,151,3.0,9.0,84,0.00,,,0.00,Wunderground v.1.15,2013-07-29 11:18:00,
2013-07-29 06:19:00,77.6,72.4,29.83,SSE,154,3.0,9.0,84,0.00,,,0.00,Wunderground v.1.15,2013-07-29 11:19:00,
2013-07-29 06:23:00,77.6,72.4,29.83,SSE,152,3.0,8.0,84,0.00,,,0.00,Wunderground v.1.15,2013-07-29 11:23:00,
2013-07-29 06:24:00,77.6,72.4,29.83,SSE,152,3.0,8.0,84,0.00,,,0.00,Wunderground v.1.15,2013-07-29 11:24:00,
2013-07-29 06:27:00,77.4,72.2,29.83,SE,126,3.0,8.0,84,0.00,,,0.00,Wunderground v.1.15,2013-07-29 11:27:00,
2013-07-29 06:28:00,77.4,72.2,29.83,SE,138,3.0,8.0,84,0.00,,,0.00,Wunderground v.1.15,2013-07-29 11:28:00,
2013-07-29 06:31:00,77.4,72.2,29.83,SE,143,4.0,4.0,84,0.00,,,0.00,Wunderground v.1.15,2013-07-29 11:31:00,
2013-07-29 06:32:00,77.4,72.2,29.84,SE,145,4.0,4.0,84,0.00,,,0.00,Wunderground v.1.15,2013-07-29 11:32:00,
2013-07-29 06:35:00,77.4,72.2,29.84,SSE,162,3.0,6.0,84,0.00,,,0.00,Wunderground v.1.15,2013-07-29 11:35:00,
2013-07-29 06:36:00,77.4,72.5,29.84,ESE,123,3.0,6.0,85,0.00,,,0.00,Wunderground v.1.15,2013-07-29 11:36:00,
2013-07-29 06:39:00,77.4,72.5,29.84,South,171,3.0,6.0,85,0.00,,,0.00,Wunderground v.1.15,2013-07-29 11:39:00,
2013-07-29 06:41:00,77.4,72.5,29.84,SSW,200,2.0,7.0,85,0.00,,,0.00,Wunderground v.1.15,2013-07-29 11:41:00,
2013-07-29 06:42:00,77.4,72.5,29.84,SSE,154,3.0,5.0,85,0.00,,,0.00,Wunderground v.1.15,2013-07-29 11:42:00,
2013-07-29 06:45:00,77.4,72.5,29.84,SSE,162,3.0,5.0,85,0.00,,,0.00,Wunderground v.1.15,2013-07-29 11:45:00,
2013-07-29 06:46:00,77.4,72.5,29.84,SSE,162,3.0,5.0,85,0.00,,,0.00,Wunderground v.1.15,2013-07-29 11:46:00,
2013-07-29 06:47:00,77.4,72.5,29.85,SSE,162,3.0,5.0,85,0.00,,,0.00,Wunderground v.1.15,2013-07-29 11:47:00,
2013-07-29 06:52:00,77.4,72.5,29.85,South,176,4.0,6.0,85,0.00,,,0.00,Wunderground v.1.15,2013-07-29 11:52:00,
2013-07-29 06:53:00,77.4,72.5,29.85,SSE,147,4.0,7.0,85,0.00,,,0.00,Wunderground v.1.15,2013-07-29 11:53:00,
2013-07-29 06:57:00,77.4,72.5,29.85,SE,133,4.0,7.0,85,0.00,,,0.00,Wunderground v.1.15,2013-07-29 11:57:00,
2013-07-29 06:58:00,77.4,72.5,29.85,SE,138,4.0,7.0,85,0.00,,,0.00,Wunderground v.1.15,2013-07-29 11:58:00,
2013-07-29 07:01:00,77.4,72.5,29.85,SE,140,4.0,4.0,85,0.00,,,0.00,Wunderground v.1.15,2013-07-29 12:01:00,
2013-07-29 07:05:00,77.2,72.3,29.85,SE,140,3.0,4.0,85,0.00,,,0.00,Wunderground v.1.15,2013-07-29 12:05:00,
2013-07-29 07:06:00,77.2,72.3,29.85,SE,131,3.0,5.0,85,0.00,,,0.00,Wunderground v.1.15,2013-07-29 12:06:00,
2013-07-29 07:09:00,77.2,72.3,29.85,SE,143,4.0,7.0,85,0.00,,,0.00,Wunderground v.1.15,2013-07-29 12:09:00,
2013-07-29 07:12:00,77.2,72.3,29.85,SE,141,4.0,6.0,85,0.00,,,0.00,Wunderground v.1.15,2013-07-29 12:12:00,
2013-07-29 07:13:00,77.2,72.3,29.85,South,169,4.0,6.0,85,0.00,,,0.00,Wunderground v.1.15,2013-07-29 12:13:00,
2013-07-29 07:16:00,77.2,72.3,29.85,South,175,4.0,6.0,85,0.00,,,0.00,Wunderground v.1.15,2013-07-29 12:16:00,
2013-07-29 07:17:00,77.2,72.3,29.86,South,185,4.0,6.0,85,0.00,,,0.00,Wunderground v.1.15,2013-07-29 12:17:00,
2013-07-29 07:21:00,77.4,72.5,29.86,SSE,152,3.0,3.0,85,0.00,,,0.00,Wunderground v.1.15,2013-07-29 12:21:00,
2013-07-29 07:24:00,77.2,72.3,29.86,SE,138,3.0,7.0,85,0.00,,,0.00,Wunderground v.1.15,2013-07-29 12:24:00,
2013-07-29 07:25:00,77.2,72.3,29.86,SE,130,3.0,7.0,85,0.00,,,0.00,Wunderground v.1.15,2013-07-29 12:25:00,
2013-07-29 07:27:00,77.2,72.3,29.86,SSE,165,3.0,7.0,85,0.00,,,0.00,Wunderground v.1.15,2013-07-29 12:27:00,
2013-07-29 07:29:00,77.2,72.3,29.86,SE,143,4.0,7.0,85,0.00,,,0.00,Wunderground v.1.15,2013-07-29 12:29:00,
2013-07-29 07:32:00,77.4,72.5,29.87,SSE,152,4.0,4.0,85,0.00,,,0.00,Wunderground v.1.15,2013-07-29 12:32:00,
2013-07-29 07:34:00,77.4,72.5,29.87,SSE,152,3.0,4.0,85,0.00,,,0.00,Wunderground v.1.15,2013-07-29 12:34:00,
2013-07-29 07:36:00,77.4,72.5,29.87,SE,141,3.0,4.0,85,0.00,,,0.00,Wunderground v.1.15,2013-07-29 12:36:00,
2013-07-29 07:37:00,77.4,72.5,29.87,SE,136,3.0,4.0,85,0.00,,,0.00,Wunderground v.1.15,2013-07-29 12:37:00,
2013-07-29 07:39:00,77.4,72.5,29.87,SE,136,2.0,4.0,85,0.00,,,0.00,Wunderground v.1.15,2013-07-29 12:39:00,
2013-07-29 07:41:00,77.4,72.5,29.87,South,172,2.0,2.0,85,0.00,,,0.00,Wunderground v.1.15,2013-07-29 12:41:00,
2013-07-29 07:42:00,77.4,72.5,29.87,SSW,196,2.0,2.0,85,0.00,,,0.00,Wunderground v.1.15,2013-07-29 12:42:00,
2013-07-29 07:47:00,77.4,72.2,29.87,SE,140,3.0,6.0,84,0.00,,,0.00,Wunderground v.1.15,2013-07-29 12:47:00,
2013-07-29 07:48:00,77.6,72.4,29.87,South,176,3.0,6.0,84,0.00,,,0.00,Wunderground v.1.15,2013-07-29 12:48:00,
2013-07-29 07:51:00,77.6,72.4,29.87,South,172,3.0,6.0,84,0.00,,,0.00,Wunderground v.1.15,2013-07-29 12:51:00,
2013-07-29 07:54:00,77.7,72.5,29.87,SE,127,3.0,11.0,84,0.00,,,0.00,Wunderground v.1.15,2013-07-29 12:54:00,
2013-07-29 07:55:00,77.7,72.5,29.87,SE,131,3.0,13.0,84,0.00,,,0.00,Wunderground v.1.15,2013-07-29 12:55:00,
2013-07-29 07:59:00,77.7,72.5,29.87,SSE,165,3.0,13.0,84,0.00,,,0.00,Wunderground v.1.15,2013-07-29 12:59:00,
2013-07-29 08:01:00,77.7,72.5,29.87,SSE,151,3.0,9.0,84,0.00,,,0.00,Wunderground v.1.15,2013-07-29 13:01:00,
2013-07-29 08:03:00,77.7,72.1,29.87,SE,137,4.0,11.0,83,0.00,,,0.00,Wunderground v.1.15,2013-07-29 13:03:00,
2013-07-29 08:05:00,77.7,72.1,29.87,South,178,5.0,11.0,83,0.00,,,0.00,Wunderground v.1.15,2013-07-29 13:05:00,
2013-07-29 08:07:00,77.9,72.3,29.87,South,181,4.0,11.0,83,0.00,,,0.00,Wunderground v.1.15,2013-07-29 13:07:00,
2013-07-29 08:12:00,78.1,72.2,29.87,SSE,157,5.0,6.0,82,0.00,,,0.00,Wunderground v.1.15,2013-07-29 13:12:00,
2013-07-29 08:13:00,78.1,72.2,29.87,SSE,155,4.0,6.0,82,0.00,,,0.00,Wunderground v.1.15,2013-07-29 13:13:00,
2013-07-29 08:17:00,78.3,72.3,29.88,SSE,165,4.0,10.0,82,0.00,,,0.00,Wunderground v.1.15,2013-07-29 13:17:00,
2013-07-29 08:18:00,78.1,72.2,29.88,SSE,150,4.0,10.0,82,0.00,,,0.00,Wunderground v.1.15,2013-07-29 13:18:00,
2013-07-29 08:22:00,78.3,72.0,29.88,South,171,5.0,5.0,81,0.00,,,0.00,Wunderground v.1.15,2013-07-29 13:22:00,
2013-07-29 08:24:00,78.3,72.0,29.88,SE,133,5.0,7.0,81,0.00,,,0.00,Wunderground v.1.15,2013-07-29 13:24:00,
2013-07-29 08:27:00,78.5,72.2,29.88,South,178,5.0,7.0,81,0.00,,,0.00,Wunderground v.1.15,2013-07-29 13:27:00,
2013-07-29 08:29:00,78.5,71.8,29.88,South,184,5.0,10.0,80,0.00,,,0.00,Wunderground v.1.15,2013-07-29 13:29:00,
2013-07-29 08:31:00,78.5,71.8,29.88,SE,144,5.0,5.0,80,0.00,,,0.00,Wunderground v.1.15,2013-07-29 13:31:00,
2013-07-29 08:32:00,78.5,71.8,29.88,SSW,193,5.0,11.0,80,0.00,,,0.00,Wunderground v.1.15,2013-07-29 13:32:00,
2013-07-29 08:33:00,78.5,71.8,29.88,SSE,164,5.0,11.0,80,0.00,,,0.00,Wunderground v.1.15,2013-07-29 13:33:00,
2013-07-29 08:38:00,78.6,71.9,29.88,SE,130,5.0,11.0,80,0.00,,,0.00,Wunderground v.1.15,2013-07-29 13:38:00,
2013-07-29 08:41:00,78.6,71.5,29.88,South,181,4.0,10.0,79,0.00,,,0.00,Wunderground v.1.15,2013-07-29 13:41:00,
2013-07-29 08:44:00,78.5,71.4,29.88,South,176,5.0,11.0,79,0.00,,,0.00,Wunderground v.1.15,2013-07-29 13:44:00,
2013-07-29 08:46:00,78.6,71.5,29.88,South,181,5.0,11.0,79,0.00,,,0.00,Wunderground v.1.15,2013-07-29 13:46:00,
2013-07-29 08:48:00,78.6,71.5,29.89,SSE,162,5.0,11.0,79,0.00,,,0.00,Wunderground v.1.15,2013-07-29 13:48:00,
2013-07-29 08:52:00,78.8,71.7,29.89,SSW,200,5.0,6.0,79,0.00,,,0.00,Wunderground v.1.15,2013-07-29 13:52:00,
2013-07-29 08:53:00,79.0,71.9,29.89,SW,216,4.0,6.0,79,0.00,,,0.00,Wunderground v.1.15,2013-07-29 13:53:00,
2013-07-29 08:54:00,79.0,71.6,29.89,SSW,205,4.0,13.0,78,0.00,,,0.00,Wunderground v.1.15,2013-07-29 13:54:00,
2013-07-29 08:59:00,79.0,71.2,29.89,SSE,155,5.0,13.0,77,0.00,,,0.00,Wunderground v.1.15,2013-07-29 13:59:00,
2013-07-29 09:00:00,79.0,71.2,29.89,SSE,157,6.0,6.0,77,0.00,,,0.00,Wunderground v.1.15,2013-07-29 14:00:00,
2013-07-29 09:01:00,79.0,71.2,29.89,South,178,6.0,10.0,77,0.00,,,0.00,Wunderground v.1.15,2013-07-29 14:01:00,
2013-07-29 09:03:00,79.0,71.2,29.89,SSE,168,6.0,10.0,77,0.00,,,0.00,Wunderground v.1.15,2013-07-29 14:03:00,
2013-07-29 09:05:00,79.2,71.4,29.89,SSW,195,5.0,10.0,77,0.00,,,0.00,Wunderground v.1.15,2013-07-29 14:05:00,
2013-07-29 09:07:00,79.2,71.4,29.89,SSW,203,5.0,10.0,77,0.00,,,0.00,Wunderground v.1.15,2013-07-29 14:07:00,
2013-07-29 09:12:00,79.4,71.2,29.89,SSE,165,6.0,10.0,76,0.00,,,0.00,Wunderground v.1.15,2013-07-29 14:12:00,
2013-07-29 09:13:00,79.6,71.4,29.89,ESE,116,6.0,10.0,76,0.00,,,0.00,Wunderground v.1.15,2013-07-29 14:13:00,
2013-07-29 09:17:00,80.1,71.8,29.89,SSE,155,6.0,10.0,76,0.00,,,0.00,Wunderground v.1.15,2013-07-29 14:17:00,
2013-07-29 09:18:00,80.3,71.6,29.89,South,174,6.0,10.0,75,0.00,,,0.00,Wunderground v.1.15,2013-07-29 14:18:00,
2013-07-29 09:19:00,80.3,71.6,29.89,SSE,157,6.0,10.0,75,0.00,,,0.00,Wunderground v.1.15,2013-07-29 14:19:00,
2013-07-29 09:23:00,80.5,71.4,29.89,SSE,164,5.0,11.0,74,0.00,,,0.00,Wunderground v.1.15,2013-07-29 14:23:00,
2013-07-29 09:24:00,80.3,71.3,29.89,SSE,151,5.0,11.0,74,0.00,,,0.00,Wunderground v.1.15,2013-07-29 14:24:00,
2013-07-29 09:25:00,80.3,71.6,29.89,South,172,5.0,11.0,75,0.00,,,0.00,Wunderground v.1.15,2013-07-29 14:25:00,
2013-07-29 09:29:00,80.1,71.1,29.89,South,176,5.0,11.0,74,0.00,,,0.00,Wunderground v.1.15,2013-07-29 14:29:00,
2013-07-29 09:31:00,80.1,71.5,29.90,SW,233,6.0,8.0,75,0.00,,,0.00,Wunderground v.1.15,2013-07-29 14:31:00,
2013-07-29 09:34:00,79.9,71.3,29.90,SSW,193,5.0,8.0,75,0.00,,,0.00,Wunderground v.1.15,2013-07-29 14:34:00,
2013-07-29 09:35:00,79.9,71.3,29.90,SSW,199,6.0,9.0,75,0.00,,,0.00,Wunderground v.1.15,2013-07-29 14:35:00,
2013-07-29 09:37:00,79.9,71.3,29.90,SSW,202,6.0,9.0,75,0.00,,,0.00,Wunderground v.1.15,2013-07-29 14:37:00,
2013-07-29 09:40:00,80.1,70.7,29.90,South,181,6.0,12.0,73,0.00,,,0.00,Wunderground v.1.15,2013-07-29 14:40:00,
2013-07-29 09:42:00,80.1,70.3,29.90,SSW,196,6.0,8.0,72,0.00,,,0.00,Wunderground v.1.15,2013-07-29 14:42:00,
2013-07-29 09:43:00,80.1,70.3,29.90,South,191,6.0,8.0,72,0.00,,,0.00,Wunderground v.1.15,2013-07-29 14:43:00,
2013-07-29 09:47:00,80.5,70.2,29.90,South,179,7.0,16.0,71,0.00,,,0.00,Wunderground v.1.15,2013-07-29 14:47:00,
2013-07-29 09:50:00,80.9,70.6,29.90,SSE,154,7.0,16.0,71,0.00,,,0.00,Wunderground v.1.15,2013-07-29 14:50:00,
2013-07-29 09:51:00,80.9,70.6,29.90,SE,143,7.0,12.0,71,0.00,,,0.00,Wunderground v.1.15,2013-07-29 14:51:00,
2013-07-29 09:52:00,81.1,70.8,29.90,SSE,168,8.0,12.0,71,0.00,,,0.00,Wunderground v.1.15,2013-07-29 14:52:00,
2013-07-29 09:56:00,81.1,70.4,29.90,SSW,193,8.0,12.0,70,0.00,,,0.00,Wunderground v.1.15,2013-07-29 14:56:00,
2013-07-29 09:59:00,81.1,70.4,29.90,South,185,8.0,13.0,70,0.00,,,0.00,Wunderground v.1.15,2013-07-29 14:59:00,
2013-07-29 10:02:00,81.6,70.4,29.90,SSW,193,7.0,8.0,69,0.00,,,0.00,Wunderground v.1.15,2013-07-29 15:02:00,
2013-07-29 10:05:00,82.0,70.8,29.90,South,174,6.0,8.0,69,0.00,,,0.00,Wunderground v.1.15,2013-07-29 15:05:00,
2013-07-29 10:08:00,82.0,70.4,29.90,South,185,6.0,8.0,68,0.00,,,0.00,Wunderground v.1.15,2013-07-29 15:08:00,
2013-07-29 10:09:00,82.2,70.6,29.90,South,189,6.0,8.0,68,0.00,,,0.00,Wunderground v.1.15,2013-07-29 15:09:00,
2013-07-29 10:13:00,82.4,69.9,29.90,South,182,7.0,13.0,66,0.00,,,0.00,Wunderground v.1.15,2013-07-29 15:13:00,
2013-07-29 10:14:00,82.4,69.4,29.90,ESE,121,8.0,14.0,65,0.00,,,0.00,Wunderground v.1.15,2013-07-29 15:14:00,
2013-07-29 10:19:00,82.6,69.6,29.90,South,189,8.0,16.0,65,0.00,,,0.00,Wunderground v.1.15,2013-07-29 15:19:00,
2013-07-29 10:21:00,82.8,69.4,29.90,ESE,123,8.0,16.0,64,0.00,,,0.00,Wunderground v.1.15,2013-07-29 15:21:00,
2013-07-29 10:23:00,83.0,70.0,29.90,SE,128,8.0,9.0,65,0.00,,,0.00,Wunderground v.1.15,2013-07-29 15:23:00,
2013-07-29 10:24:00,83.2,69.8,29.90,SSE,158,7.0,9.0,64,0.00,,,0.00,Wunderground v.1.15,2013-07-29 15:24:00,
2013-07-29 10:28:00,83.4,69.9,29.90,SSE,147,7.0,9.0,64,0.00,,,0.00,Wunderground v.1.15,2013-07-29 15:28:00,
2013-07-29 10:30:00,83.4,69.9,29.90,South,181,6.0,9.0,64,0.00,,,0.00,Wunderground v.1.15,2013-07-29 15:30:00,
2013-07-29 10:31:00,83.4,69.5,29.90,South,186,7.0,7.0,63,0.00,,,0.00,Wunderground v.1.15,2013-07-29 15:31:00,
2013-07-29 10:36:00,83.8,69.4,29.90,SSW,202,6.0,12.0,62,0.00,,,0.00,Wunderground v.1.15,2013-07-29 15:36:00,
2013-07-29 10:37:00,83.8,68.9,29.90,South,182,7.0,12.0,61,0.00,,,0.00,Wunderground v.1.15,2013-07-29 15:37:00,
2013-07-29 10:41:00,83.6,68.7,29.90,SSE,151,8.0,8.0,61,0.00,,,0.00,Wunderground v.1.15,2013-07-29 15:41:00,
2013-07-29 10:42:00,83.6,69.2,29.90,SE,137,8.0,8.0,62,0.00,,,0.00,Wunderground v.1.15,2013-07-29 15:42:00,
2013-07-29 10:43:00,83.8,69.4,29.90,SSW,210,8.0,8.0,62,0.00,,,0.00,Wunderground v.1.15,2013-07-29 15:43:00,
2013-07-29 10:46:00,84.0,69.1,29.90,South,184,9.0,13.0,61,0.00,,,0.00,Wunderground v.1.15,2013-07-29 15:46:00,
2013-07-29 10:48:00,83.8,68.9,29.90,South,178,9.0,13.0,61,0.00,,,0.00,Wunderground v.1.15,2013-07-29 15:48:00,
2013-07-29 10:51:00,83.8,68.9,29.90,SSW,192,8.0,13.0,61,0.00,,,0.00,Wunderground v.1.15,2013-07-29 15:51:00,
2013-07-29 10:53:00,84.1,69.2,29.90,SW,216,7.0,8.0,61,0.00,,,0.00,Wunderground v.1.15,2013-07-29 15:53:00,
2013-07-29 10:56:00,84.3,68.9,29.90,South,174,7.0,11.0,60,0.00,,,0.00,Wunderground v.1.15,2013-07-29 15:56:00,
2013-07-29 10:57:00,84.1,68.2,29.90,SSW,213,7.0,11.0,59,0.00,,,0.00,Wunderground v.1.15,2013-07-29 15:57:00,
2013-07-29 11:01:00,84.3,68.9,29.90,South,188,7.0,8.0,60,0.00,,,0.00,Wunderground v.1.15,2013-07-29 16:01:00,
2013-07-29 11:03:00,84.5,69.6,29.90,South,184,7.0,8.0,61,0.00,,,0.00,Wunderground v.1.15,2013-07-29 16:03:00,
2013-07-29 11:08:00,84.9,69.9,29.90,South,175,7.0,8.0,61,0.00,,,0.00,Wunderground v.1.15,2013-07-29 16:08:00,
2013-07-29 11:09:00,84.9,69.5,29.90,SSW,196,6.0,8.0,60,0.00,,,0.00,Wunderground v.1.15,2013-07-29 16:09:00,
2013-07-29 11:13:00,84.9,69.9,29.90,WSW,248,6.0,10.0,61,0.00,,,0.00,Wunderground v.1.15,2013-07-29 16:13:00,
2013-07-29 11:14:00,85.1,69.7,29.90,SSW,195,6.0,10.0,60,0.00,,,0.00,Wunderground v.1.15,2013-07-29 16:14:00,
2013-07-29 11:15:00,85.3,69.8,29.90,South,174,6.0,10.0,60,0.00,,,0.00,Wunderground v.1.15,2013-07-29 16:15:00,
2013-07-29 11:17:00,85.7,69.7,29.90,SE,127,6.0,10.0,59,0.00,,,0.00,Wunderground v.1.15,2013-07-29 16:17:00,
2013-07-29 11:19:00,85.7,67.1,29.90,SE,137,6.0,10.0,54,0.00,,,0.00,Wunderground v.1.15,2013-07-29 16:19:00,
2013-07-29 11:22:00,86.1,68.0,29.90,South,182,7.0,10.0,55,0.00,,,0.00,Wunderground v.1.15,2013-07-29 16:22:00,
2013-07-29 11:23:00,86.1,68.0,29.90,ESE,117,7.0,10.0,55,0.00,,,0.00,Wunderground v.1.15,2013-07-29 16:23:00,
2013-07-29 11:28:00,86.1,67.0,29.90,SSW,196,9.0,12.0,53,0.00,,,0.00,Wunderground v.1.15,2013-07-29 16:28:00,
2013-07-29 11:29:00,86.3,67.2,29.90,South,178,9.0,12.0,53,0.00,,,0.00,Wunderground v.1.15,2013-07-29 16:29:00,
2013-07-29 11:31:00,86.5,67.3,29.90,SSE,151,9.0,9.0,53,0.00,,,0.00,Wunderground v.1.15,2013-07-29 16:31:00,
2013-07-29 11:36:00,87.0,67.8,29.90,SSW,206,7.0,10.0,53,0.00,,,0.00,Wunderground v.1.15,2013-07-29 16:36:00,
2013-07-29 11:37:00,87.0,67.2,29.90,SW,236,7.0,10.0,52,0.00,,,0.00,Wunderground v.1.15,2013-07-29 16:37:00,
2013-07-29 11:41:00,87.6,67.8,29.90,SSW,203,6.0,6.0,52,0.00,,,0.00,Wunderground v.1.15,2013-07-29 16:41:00,
2013-07-29 11:43:00,87.6,67.8,29.90,West,260,6.0,8.0,52,0.00,,,0.00,Wunderground v.1.15,2013-07-29 16:43:00,
2013-07-29 11:44:00,87.4,67.6,29.90,South,171,6.0,11.0,52,0.00,,,0.00,Wunderground v.1.15,2013-07-29 16:44:00,
2013-07-29 11:48:00,87.4,67.1,29.89,WSW,237,7.0,11.0,51,0.00,,,0.00,Wunderground v.1.15,2013-07-29 16:48:00,
2013-07-29 11:49:00,87.4,67.6,29.89,SW,215,7.0,11.0,52,0.00,,,0.00,Wunderground v.1.15,2013-07-29 16:49:00,
2013-07-29 11:51:00,87.4,67.6,29.89,SSE,164,7.0,11.0,52,0.00,,,0.00,Wunderground v.1.15,2013-07-29 16:51:00,
2013-07-29 11:56:00,87.6,67.2,29.89,SSE,147,7.0,16.0,51,0.00,,,0.00,Wunderground v.1.15,2013-07-29 16:56:00,
2013-07-29 11:57:00,87.8,67.4,29.89,SSE,152,7.0,16.0,51,0.00,,,0.00,Wunderground v.1.15,2013-07-29 16:57:00,
2013-07-29 11:58:00,87.8,67.4,29.89,SSW,208,7.0,16.0,51,0.00,,,0.00,Wunderground v.1.15,2013-07-29 16:58:00,
2013-07-29 12:01:00,87.8,66.8,29.89,SSW,192,8.0,8.0,50,0.00,,,0.00,Wunderground v.1.15,2013-07-29 17:01:00,
2013-07-29 12:04:00,87.6,67.2,29.89,SSW,206,8.0,11.0,51,0.00,,,0.00,Wunderground v.1.15,2013-07-29 17:04:00,
2013-07-29 12:05:00,87.8,66.8,29.89,SSE,158,9.0,11.0,50,0.00,,,0.00,Wunderground v.1.15,2013-07-29 17:05:00,
2013-07-29 12:08:00,88.0,67.0,29.89,SSW,203,8.0,11.0,50,0.00,,,0.00,Wunderground v.1.15,2013-07-29 17:08:00,
2013-07-29 12:12:00,88.6,67.0,29.89,SW,224,8.0,9.0,49,0.00,,,0.00,Wunderground v.1.15,2013-07-29 17:12:00,
2013-07-29 12:14:00,89.0,66.8,29.89,South,188,7.0,13.0,48,0.00,,,0.00,Wunderground v.1.15,2013-07-29 17:14:00,
2013-07-29 12:17:00,89.0,66.2,29.89,SSW,202,7.0,13.0,47,0.00,,,0.00,Wunderground v.1.15,2013-07-29 17:17:00,
2013-07-29 12:18:00,89.3,66.4,29.89,SE,128,7.0,13.0,47,0.00,,,0.00,Wunderground v.1.15,2013-07-29 17:18:00,
2013-07-29 12:21:00,89.0,66.2,29.89,South,184,8.0,11.0,47,0.00,,,0.00,Wunderground v.1.15,2013-07-29 17:21:00,
2013-07-29 12:23:00,89.3,67.0,29.89,SW,234,8.0,13.0,48,0.00,,,0.00,Wunderground v.1.15,2013-07-29 17:23:00,
2013-07-29 12:26:00,89.3,66.4,29.89,SSE,161,9.0,13.0,47,0.00,,,0.00,Wunderground v.1.15,2013-07-29 17:26:00,
2013-07-29 12:27:00,89.3,66.4,29.89,South,176,9.0,13.0,47,0.00,,,0.00,Wunderground v.1.15,2013-07-29 17:27:00,
2013-07-29 12:31:00,89.5,66.0,29.88,SE,144,8.0,10.0,46,0.00,,,0.00,Wunderground v.1.15,2013-07-29 17:31:00,
2013-07-29 12:32:00,89.5,66.0,29.88,SE,137,8.0,11.0,46,0.00,,,0.00,Wunderground v.1.15,2013-07-29 17:32:00,
2013-07-29 12:36:00,89.7,65.5,29.88,SE,133,7.0,11.0,45,0.00,,,0.00,Wunderground v.1.15,2013-07-29 17:36:00,
2013-07-29 12:38:00,89.9,65.7,29.88,ESE,106,8.0,11.0,45,0.00,,,0.00,Wunderground v.1.15,2013-07-29 17:38:00,
2013-07-29 12:39:00,89.7,66.2,29.88,ESE,120,8.0,11.0,46,0.00,,,0.00,Wunderground v.1.15,2013-07-29 17:39:00,
2013-07-29 12:43:00,89.9,67.0,29.88,SW,217,7.0,12.0,47,0.00,,,0.00,Wunderground v.1.15,2013-07-29 17:43:00,
2013-07-29 12:44:00,90.1,67.2,29.88,South,185,7.0,12.0,47,0.00,,,0.00,Wunderground v.1.15,2013-07-29 17:44:00,
2013-07-29 12:46:00,90.3,66.7,29.88,SW,215,7.0,12.0,46,0.00,,,0.00,Wunderground v.1.15,2013-07-29 17:46:00,
2013-07-29 12:49:00,90.3,64.8,29.87,SE,143,7.0,12.0,43,0.00,,,0.00,Wunderground v.1.15,2013-07-29 17:49:00,
2013-07-29 12:51:00,90.1,65.9,29.87,SSE,152,6.0,18.0,45,0.00,,,0.00,Wunderground v.1.15,2013-07-29 17:51:00,
2013-07-29 12:52:00,90.1,65.9,29.87,SE,133,7.0,19.0,45,0.00,,,0.00,Wunderground v.1.15,2013-07-29 17:52:00,
2013-07-29 12:54:00,90.3,66.1,29.87,SSW,206,8.0,19.0,45,0.00,,,0.00,Wunderground v.1.15,2013-07-29 17:54:00,
2013-07-29 13:01:00,91.0,66.1,29.87,South,175,7.0,7.0,44,0.00,,,0.00,Wunderground v.1.15,2013-07-29 18:01:00,
2013-07-29 13:02:00,91.4,66.4,29.87,SE,133,6.0,10.0,44,0.00,,,0.00,Wunderground v.1.15,2013-07-29 18:02:00,
2013-07-29 13:05:00,91.2,64.9,29.87,SSW,195,6.0,17.0,42,0.00,,,0.00,Wunderground v.1.15,2013-07-29 18:05:00,
2013-07-29 13:07:00,91.0,64.7,29.87,SE,144,7.0,17.0,42,0.00,,,0.00,Wunderground v.1.15,2013-07-29 18:07:00,
2013-07-29 13:08:00,90.7,64.5,29.87,SSE,161,7.0,17.0,42,0.00,,,0.00,Wunderground v.1.15,2013-07-29 18:08:00,
2013-07-29 13:14:00,90.7,64.5,29.87,South,186,9.0,16.0,42,0.00,,,0.00,Wunderground v.1.15,2013-07-29 18:14:00,
2013-07-29 13:15:00,91.0,64.7,29.87,SSW,198,9.0,16.0,42,0.00,,,0.00,Wunderground v.1.15,2013-07-29 18:15:00,
2013-07-29 13:19:00,91.6,64.6,29.87,WSW,237,8.0,16.0,41,0.00,,,0.00,Wunderground v.1.15,2013-07-29 18:19:00,
2013-07-29 13:21:00,91.6,64.6,29.87,South,186,8.0,8.0,41,0.00,,,0.00,Wunderground v.1.15,2013-07-29 18:21:00,
2013-07-29 13:22:00,91.8,64.7,29.87,SSE,157,8.0,8.0,41,0.00,,,0.00,Wunderground v.1.15,2013-07-29 18:22:00,
2013-07-29 13:27:00,92.1,65.0,29.87,SW,217,8.0,16.0,41,0.00,,,0.00,Wunderground v.1.15,2013-07-29 18:27:00,
2013-07-29 13:28:00,92.1,65.7,29.87,SSW,196,8.0,18.0,42,0.00,,,0.00,Wunderground v.1.15,2013-07-29 18:28:00,
2013-07-29 13:29:00,91.8,64.7,29.87,South,186,8.0,18.0,41,0.00,,,0.00,Wunderground v.1.15,2013-07-29 18:29:00,
2013-07-29 13:31:00,92.1,65.7,29.87,South,188,8.0,18.0,42,0.00,,,0.00,Wunderground v.1.15,2013-07-29 18:31:00,
2013-07-29 13:36:00,92.3,65.2,29.86,South,185,6.0,8.0,41,0.00,,,0.00,Wunderground v.1.15,2013-07-29 18:36:00,
2013-07-29 13:37:00,92.5,66.1,29.86,South,191,6.0,8.0,42,0.00,,,0.00,Wunderground v.1.15,2013-07-29 18:37:00,
2013-07-29 13:39:00,92.7,64.1,29.86,SSE,162,5.0,18.0,39,0.00,,,0.00,Wunderground v.1.15,2013-07-29 18:39:00,
2013-07-29 13:42:00,92.3,64.5,29.86,WSW,240,6.0,9.0,40,0.00,,,0.00,Wunderground v.1.15,2013-07-29 18:42:00,
2013-07-29 13:43:00,92.3,64.5,29.86,SSW,200,6.0,9.0,40,0.00,,,0.00,Wunderground v.1.15,2013-07-29 18:43:00,
2013-07-29 13:44:00,92.5,64.7,29.86,South,175,7.0,9.0,40,0.00,,,0.00,Wunderground v.1.15,2013-07-29 18:44:00,
2013-07-29 13:48:00,92.9,63.6,29.86,SW,219,8.0,9.0,38,0.00,,,0.00,Wunderground v.1.15,2013-07-29 18:48:00,
2013-07-29 13:53:00,92.9,63.6,29.86,SE,137,8.0,13.0,38,0.00,,,0.00,Wunderground v.1.15,2013-07-29 18:53:00,
2013-07-29 13:55:00,93.2,63.8,29.86,SSW,195,8.0,13.0,38,0.00,,,0.00,Wunderground v.1.15,2013-07-29 18:55:00,
2013-07-29 13:57:00,93.2,63.8,29.86,ESE,120,8.0,13.0,38,0.00,,,0.00,Wunderground v.1.15,2013-07-29 18:57:00,
2013-07-29 13:58:00,93.2,63.8,29.86,SSE,162,8.0,13.0,38,0.00,,,0.00,Wunderground v.1.15,2013-07-29 18:58:00,
2013-07-29 14:01:00,93.8,62.8,29.86,South,169,6.0,8.0,36,0.00,,,0.00,Wunderground v.1.15,2013-07-29 19:01:00,
2013-07-29 14:03:00,93.8,63.6,29.85,SSE,148,6.0,11.0,37,0.00,,,0.00,Wunderground v.1.15,2013-07-29 19:03:00,
2013-07-29 14:05:00,93.6,62.6,29.85,SW,229,7.0,11.0,36,0.00,,,0.00,Wunderground v.1.15,2013-07-29 19:05:00,
2013-07-29 14:08:00,93.8,63.6,29.85,South,176,7.0,11.0,37,0.00,,,0.00,Wunderground v.1.15,2013-07-29 19:08:00,
2013-07-29 14:09:00,93.6,63.4,29.85,SSE,165,7.0,11.0,37,0.00,,,0.00,Wunderground v.1.15,2013-07-29 19:09:00,
2013-07-29 14:11:00,93.6,63.4,29.85,SSW,198,7.0,11.0,37,0.00,,,0.00,Wunderground v.1.15,2013-07-29 19:11:00,
2013-07-29 14:15:00,93.6,63.4,29.85,SSE,164,8.0,16.0,37,0.00,,,0.00,Wunderground v.1.15,2013-07-29 19:15:00,
2013-07-29 14:19:00,93.6,61.8,29.85,SSE,164,9.0,17.0,35,0.00,,,0.00,Wunderground v.1.15,2013-07-29 19:19:00,
2013-07-29 14:21:00,93.8,62.0,29.85,SW,222,9.0,10.0,35,0.00,,,0.00,Wunderground v.1.15,2013-07-29 19:21:00,
2013-07-29 14:22:00,93.8,61.2,29.85,South,169,10.0,10.0,34,0.00,,,0.00,Wunderground v.1.15,2013-07-29 19:22:00,
2013-07-29 14:26:00,94.0,61.4,29.85,South,181,8.0,20.0,34,0.00,,,0.00,Wunderground v.1.15,2013-07-29 19:26:00,
2013-07-29 14:27:00,94.3,62.4,29.85,South,185,8.0,20.0,35,0.00,,,0.00,Wunderground v.1.15,2013-07-29 19:27:00,
2013-07-29 14:32:00,94.5,62.6,29.85,SW,223,8.0,11.0,35,0.00,,,0.00,Wunderground v.1.15,2013-07-29 19:32:00,
2013-07-29 14:35:00,94.5,62.6,29.85,SSW,198,8.0,11.0,35,0.00,,,0.00,Wunderground v.1.15,2013-07-29 19:35:00,
2013-07-29 14:39:00,94.5,62.6,29.85,SW,215,8.0,11.0,35,0.00,,,0.00,Wunderground v.1.15,2013-07-29 19:39:00,
2013-07-29 14:41:00,94.7,62.8,29.85,SE,134,7.0,13.0,35,0.00,,,0.00,Wunderground v.1.15,2013-07-29 19:41:00,
2013-07-29 14:44:00,94.9,63.0,29.85,South,189,7.0,10.0,35,0.00,,,0.00,Wunderground v.1.15,2013-07-29 19:44:00,
2013-07-29 14:46:00,95.1,63.1,29.85,South,188,6.0,10.0,35,0.00,,,0.00,Wunderground v.1.15,2013-07-29 19:46:00,
2013-07-29 14:49:00,95.1,62.3,29.84,ESE,119,6.0,10.0,34,0.00,,,0.00,Wunderground v.1.15,2013-07-29 19:49:00,
2013-07-29 14:51:00,95.4,63.4,29.84,ESE,123,6.0,10.0,35,0.00,,,0.00,Wunderground v.1.15,2013-07-29 19:51:00,
2013-07-29 14:52:00,95.6,61.9,29.84,ESE,121,6.0,9.0,33,0.00,,,0.00,Wunderground v.1.15,2013-07-29 19:52:00,
2013-07-29 14:57:00,94.9,63.0,29.84,SE,131,8.0,10.0,35,0.00,,,0.00,Wunderground v.1.15,2013-07-29 19:57:00,
2013-07-29 14:58:00,94.7,62.8,29.84,East,99,8.0,10.0,35,0.00,,,0.00,Wunderground v.1.15,2013-07-29 19:58:00,
2013-07-29 14:59:00,94.7,63.6,29.84,SSE,154,8.0,10.0,36,0.00,,,0.00,Wunderground v.1.15,2013-07-29 19:59:00,
2013-07-29 15:01:00,94.7,63.6,29.84,SSW,205,8.0,11.0,36,0.00,,,0.00,Wunderground v.1.15,2013-07-29 20:01:00,
2013-07-29 15:03:00,94.9,63.0,29.84,SSE,160,8.0,11.0,35,0.00,,,0.00,Wunderground v.1.15,2013-07-29 20:03:00,
2013-07-29 15:05:00,94.9,63.0,29.84,SW,232,7.0,11.0,35,0.00,,,0.00,Wunderground v.1.15,2013-07-29 20:05:00,
2013-07-29 15:08:00,95.1,63.1,29.84,South,186,8.0,12.0,35,0.00,,,0.00,Wunderground v.1.15,2013-07-29 20:08:00,
2013-07-29 15:09:00,95.1,63.1,29.84,South,189,8.0,12.0,35,0.00,,,0.00,Wunderground v.1.15,2013-07-29 20:09:00,
2013-07-29 15:11:00,95.1,63.1,29.84,WSW,256,8.0,8.0,35,0.00,,,0.00,Wunderground v.1.15,2013-07-29 20:11:00,
2013-07-29 15:15:00,95.6,63.6,29.84,SSE,147,8.0,8.0,35,0.00,,,0.00,Wunderground v.1.15,2013-07-29 20:15:00,
2013-07-29 15:17:00,95.6,63.6,29.83,ESE,106,8.0,9.0,35,0.00,,,0.00,Wunderground v.1.15,2013-07-29 20:17:00,
2013-07-29 15:18:00,95.1,63.1,29.83,SE,127,7.0,9.0,35,0.00,,,0.00,Wunderground v.1.15,2013-07-29 20:18:00,
2013-07-29 15:21:00,94.9,63.8,29.83,SE,133,7.0,13.0,36,0.00,,,0.00,Wunderground v.1.15,2013-07-29 20:21:00,
2013-07-29 15:23:00,94.9,63.8,29.83,South,171,8.0,11.0,36,0.00,,,0.00,Wunderground v.1.15,2013-07-29 20:23:00,
2013-07-29 15:24:00,95.1,63.1,29.83,SE,144,8.0,11.0,35,0.00,,,0.00,Wunderground v.1.15,2013-07-29 20:24:00,
2013-07-29 15:25:00,95.1,63.1,29.83,SE,136,8.0,12.0,35,0.00,,,0.00,Wunderground v.1.15,2013-07-29 20:25:00,
2013-07-29 15:27:00,95.1,63.1,29.83,ESE,107,9.0,12.0,35,0.00,,,0.00,Wunderground v.1.15,2013-07-29 20:27:00,
2013-07-29 15:28:00,95.1,63.9,29.83,East,99,8.0,12.0,36,0.00,,,0.00,Wunderground v.1.15,2013-07-29 20:28:00,
2013-07-29 15:32:00,95.1,62.3,29.83,SE,134,8.0,10.0,34,0.00,,,0.00,Wunderground v.1.15,2013-07-29 20:32:00,
2013-07-29 15:36:00,95.4,64.2,29.83,SE,145,8.0,11.0,36,0.00,,,0.00,Wunderground v.1.15,2013-07-29 20:36:00,
2013-07-29 15:37:00,95.4,63.4,29.83,SSE,154,8.0,11.0,35,0.00,,,0.00,Wunderground v.1.15,2013-07-29 20:37:00,
2013-07-29 15:43:00,95.4,63.4,29.83,South,174,9.0,16.0,35,0.00,,,0.00,Wunderground v.1.15,2013-07-29 20:43:00,
2013-07-29 15:44:00,95.6,62.8,29.83,SE,124,9.0,16.0,34,0.00,,,0.00,Wunderground v.1.15,2013-07-29 20:44:00,
2013-07-29 15:46:00,95.4,62.6,29.83,South,178,9.0,16.0,34,0.00,,,0.00,Wunderground v.1.15,2013-07-29 20:46:00,
2013-07-29 15:49:00,95.9,63.0,29.83,South,176,8.0,16.0,34,0.00,,,0.00,Wunderground v.1.15,2013-07-29 20:49:00,
2013-07-29 15:51:00,96.1,63.2,29.83,South,174,8.0,16.0,34,0.00,,,0.00,Wunderground v.1.15,2013-07-29 20:51:00,
2013-07-29 15:53:00,95.9,62.2,29.83,SSE,164,8.0,16.0,33,0.00,,,0.00,Wunderground v.1.15,2013-07-29 20:53:00,
2013-07-29 15:57:00,95.6,62.8,29.83,SSE,160,9.0,16.0,34,0.00,,,0.00,Wunderground v.1.15,2013-07-29 20:57:00,
2013-07-29 15:59:00,95.9,62.2,29.83,South,181,9.0,16.0,33,0.00,,,0.00,Wunderground v.1.15,2013-07-29 20:59:00,
2013-07-29 16:01:00,95.9,62.2,29.83,SSE,157,9.0,12.0,33,0.00,,,0.00,Wunderground v.1.15,2013-07-29 21:01:00,
2013-07-29 16:02:00,95.6,61.9,29.82,South,188,9.0,12.0,33,0.00,,,0.00,Wunderground v.1.15,2013-07-29 21:02:00,
2013-07-29 16:03:00,95.6,61.9,29.82,SE,130,9.0,12.0,33,0.00,,,0.00,Wunderground v.1.15,2013-07-29 21:03:00,
2013-07-29 16:07:00,95.6,61.9,29.82,South,184,8.0,12.0,33,0.00,,,0.00,Wunderground v.1.15,2013-07-29 21:07:00,
2013-07-29 16:08:00,95.9,62.2,29.82,SSW,200,8.0,12.0,33,0.00,,,0.00,Wunderground v.1.15,2013-07-29 21:08:00,
2013-07-29 16:10:00,96.1,61.5,29.82,SSE,160,8.0,12.0,32,0.00,,,0.00,Wunderground v.1.15,2013-07-29 21:10:00,
2013-07-29 16:12:00,96.1,60.6,29.82,SE,130,8.0,11.0,31,0.00,,,0.00,Wunderground v.1.15,2013-07-29 21:12:00,
2013-07-29 16:13:00,95.9,60.4,29.82,SW,233,8.0,11.0,31,0.00,,,0.00,Wunderground v.1.15,2013-07-29 21:13:00,
2013-07-29 16:18:00,96.3,60.7,29.82,SSE,154,8.0,11.0,31,0.00,,,0.00,Wunderground v.1.15,2013-07-29 21:18:00,
2013-07-29 16:19:00,96.3,60.7,29.82,SSW,195,8.0,14.0,31,0.00,,,0.00,Wunderground v.1.15,2013-07-29 21:19:00,
2013-07-29 16:20:00,96.3,61.6,29.82,South,181,8.0,14.0,32,0.00,,,0.00,Wunderground v.1.15,2013-07-29 21:20:00,
2013-07-29 16:24:00,96.8,62.1,29.82,SW,222,7.0,11.0,32,0.00,,,0.00,Wunderground v.1.15,2013-07-29 21:24:00,
2013-07-29 16:26:00,96.6,61.0,29.82,SE,127,8.0,11.0,31,0.00,,,0.00,Wunderground v.1.15,2013-07-29 21:26:00,
2013-07-29 16:28:00,96.6,58.2,29.82,SE,136,8.0,11.0,28,0.00,,,0.00,Wunderground v.1.15,2013-07-29 21:28:00,
2013-07-29 16:33:00,96.1,59.7,29.82,South,179,10.0,15.0,30,0.00,,,0.00,Wunderground v.1.15,2013-07-29 21:33:00,
2013-07-29 16:34:00,96.1,60.6,29.82,SE,141,10.0,15.0,31,0.00,,,0.00,Wunderground v.1.15,2013-07-29 21:34:00,
2013-07-29 16:39:00,96.3,61.6,29.82,SE,134,10.0,15.0,32,0.00,,,0.00,Wunderground v.1.15,2013-07-29 21:39:00,
2013-07-29 16:40:00,96.3,61.6,29.82,SSW,208,9.0,15.0,32,0.00,,,0.00,Wunderground v.1.15,2013-07-29 21:40:00,
2013-07-29 16:45:00,97.1,61.4,29.82,South,182,8.0,13.0,31,0.00,,,0.00,Wunderground v.1.15,2013-07-29 21:45:00,
2013-07-29 16:47:00,97.1,61.4,29.81,South,185,7.0,13.0,31,0.00,,,0.00,Wunderground v.1.15,2013-07-29 21:47:00,
2013-07-29 16:52:00,96.6,62.8,29.81,ESE,121,7.0,7.0,33,0.00,,,0.00,Wunderground v.1.15,2013-07-29 21:52:00,
2013-07-29 16:54:00,96.3,63.4,29.81,SSE,150,8.0,12.0,34,0.00,,,0.00,Wunderground v.1.15,2013-07-29 21:54:00,
2013-07-29 16:55:00,96.3,61.6,29.81,SE,145,8.0,13.0,32,0.00,,,0.00,Wunderground v.1.15,2013-07-29 21:55:00,
2013-07-29 16:58:00,96.3,61.6,29.81,SSW,193,9.0,13.0,32,0.00,,,0.00,Wunderground v.1.15,2013-07-29 21:58:00,
2013-07-29 17:02:00,96.1,61.5,29.81,SSE,165,10.0,10.0,32,0.00,,,0.00,Wunderground v.1.15,2013-07-29 22:02:00,
2013-07-29 17:08:00,96.1,61.5,29.81,SSE,168,9.0,13.0,32,0.00,,,0.00,Wunderground v.1.15,2013-07-29 22:08:00,
2013-07-29 17:09:00,96.1,61.5,29.81,SE,133,9.0,13.0,32,0.00,,,0.00,Wunderground v.1.15,2013-07-29 22:09:00,
2013-07-29 17:13:00,96.3,60.7,29.81,SSE,161,9.0,12.0,31,0.00,,,0.00,Wunderground v.1.15,2013-07-29 22:13:00,
2013-07-29 17:14:00,96.3,60.7,29.81,SSE,158,9.0,12.0,31,0.00,,,0.00,Wunderground v.1.15,2013-07-29 22:14:00,
2013-07-29 17:15:00,96.3,59.8,29.81,South,188,9.0,13.0,30,0.00,,,0.00,Wunderground v.1.15,2013-07-29 22:15:00,
2013-07-29 17:18:00,96.6,61.0,29.81,South,171,9.0,13.0,31,0.00,,,0.00,Wunderground v.1.15,2013-07-29 22:18:00,
2013-07-29 17:20:00,96.6,61.9,29.81,SE,138,8.0,13.0,32,0.00,,,0.00,Wunderground v.1.15,2013-07-29 22:20:00,
2013-07-29 17:21:00,96.6,61.9,29.81,ESE,112,8.0,8.0,32,0.00,,,0.00,Wunderground v.1.15,2013-07-29 22:21:00,
2013-07-29 17:23:00,96.6,62.8,29.81,South,171,8.0,8.0,33,0.00,,,0.00,Wunderground v.1.15,2013-07-29 22:23:00,
2013-07-29 17:27:00,96.1,63.2,29.81,SE,127,7.0,9.0,34,0.00,,,0.00,Wunderground v.1.15,2013-07-29 22:27:00,
2013-07-29 17:28:00,96.1,64.0,29.81,SE,145,7.0,9.0,35,0.00,,,0.00,Wunderground v.1.15,2013-07-29 22:28:00,
2013-07-29 17:31:00,96.1,64.0,29.81,SSE,157,8.0,8.0,35,0.00,,,0.00,Wunderground v.1.15,2013-07-29 22:31:00,
2013-07-29 17:32:00,95.9,63.8,29.81,ESE,121,8.0,10.0,35,0.00,,,0.00,Wunderground v.1.15,2013-07-29 22:32:00,
2013-07-29 17:36:00,95.9,63.8,29.81,South,182,7.0,10.0,35,0.00,,,0.00,Wunderground v.1.15,2013-07-29 22:36:00,
2013-07-29 17:37:00,96.1,64.0,29.81,SSW,196,7.0,10.0,35,0.00,,,0.00,Wunderground v.1.15,2013-07-29 22:37:00,
2013-07-29 17:39:00,96.3,63.4,29.81,SSE,158,8.0,10.0,34,0.00,,,0.00,Wunderground v.1.15,2013-07-29 22:39:00,
2013-07-29 17:42:00,96.1,63.2,29.81,SSE,154,7.0,11.0,34,0.00,,,0.00,Wunderground v.1.15,2013-07-29 22:42:00,
2013-07-29 17:45:00,96.1,64.0,29.81,South,186,7.0,11.0,35,0.00,,,0.00,Wunderground v.1.15,2013-07-29 22:45:00,
2013-07-29 17:46:00,96.1,63.2,29.81,SE,141,7.0,11.0,34,0.00,,,0.00,Wunderground v.1.15,2013-07-29 22:46:00,
2013-07-29 17:47:00,96.1,64.0,29.81,SSE,152,7.0,11.0,35,0.00,,,0.00,Wunderground v.1.15,2013-07-29 22:47:00,
2013-07-29 17:48:00,96.1,63.2,29.81,SE,133,7.0,11.0,34,0.00,,,0.00,Wunderground v.1.15,2013-07-29 22:48:00,
2013-07-29 17:53:00,95.6,62.8,29.81,SSE,150,7.0,14.0,34,0.00,,,0.00,Wunderground v.1.15,2013-07-29 22:53:00,
2013-07-29 17:55:00,95.6,63.6,29.81,SSE,164,7.0,14.0,35,0.00,,,0.00,Wunderground v.1.15,2013-07-29 22:55:00,
2013-07-29 17:57:00,95.9,63.8,29.81,SSE,160,7.0,14.0,35,0.00,,,0.00,Wunderground v.1.15,2013-07-29 22:57:00,
2013-07-29 17:58:00,95.9,63.8,29.81,SE,137,7.0,14.0,35,0.00,,,0.00,Wunderground v.1.15,2013-07-29 22:58:00,
2013-07-29 18:01:00,95.4,63.4,29.81,SSE,150,8.0,10.0,35,0.00,,,0.00,Wunderground v.1.15,2013-07-29 23:01:00,
2013-07-29 18:05:00,95.1,63.9,29.81,SE,134,8.0,12.0,36,0.00,,,0.00,Wunderground v.1.15,2013-07-29 23:05:00,
2013-07-29 18:07:00,94.9,63.8,29.81,SE,136,8.0,12.0,36,0.00,,,0.00,Wunderground v.1.15,2013-07-29 23:07:00,
2013-07-29 18:12:00,94.7,64.4,29.81,SE,144,7.0,8.0,37,0.00,,,0.00,Wunderground v.1.15,2013-07-29 23:12:00,
2013-07-29 18:15:00,95.1,64.7,29.81,SSE,151,6.0,8.0,37,0.00,,,0.00,Wunderground v.1.15,2013-07-29 23:15:00,
2013-07-29 18:17:00,95.4,65.0,29.81,SE,127,6.0,8.0,37,0.00,,,0.00,Wunderground v.1.15,2013-07-29 23:17:00,
2013-07-29 18:19:00,95.4,64.2,29.81,SE,133,6.0,8.0,36,0.00,,,0.00,Wunderground v.1.15,2013-07-29 23:19:00,
2013-07-29 18:22:00,95.1,63.9,29.81,SSE,155,7.0,12.0,36,0.00,,,0.00,Wunderground v.1.15,2013-07-29 23:22:00,
2013-07-29 18:24:00,94.9,63.8,29.81,South,176,7.0,12.0,36,0.00,,,0.00,Wunderground v.1.15,2013-07-29 23:24:00,
2013-07-29 18:28:00,94.9,63.8,29.81,SE,131,8.0,12.0,36,0.00,,,0.00,Wunderground v.1.15,2013-07-29 23:28:00,
2013-07-29 18:29:00,94.9,64.6,29.81,South,182,8.0,12.0,37,0.00,,,0.00,Wunderground v.1.15,2013-07-29 23:29:00,
2013-07-29 18:30:00,94.9,64.6,29.81,SE,124,8.0,12.0,37,0.00,,,0.00,Wunderground v.1.15,2013-07-29 23:30:00,
2013-07-29 18:37:00,94.7,65.1,29.80,SE,127,7.0,11.0,38,0.00,,,0.00,Wunderground v.1.15,2013-07-29 23:37:00,
2013-07-29 18:38:00,94.7,65.1,29.80,SE,131,8.0,11.0,38,0.00,,,0.00,Wunderground v.1.15,2013-07-29 23:38:00,
2013-07-29 18:39:00,94.5,65.7,29.80,SE,127,8.0,11.0,39,0.00,,,0.00,Wunderground v.1.15,2013-07-29 23:39:00,
2013-07-29 18:44:00,94.3,66.3,29.80,SSE,162,9.0,10.0,40,0.00,,,0.00,Wunderground v.1.15,2013-07-29 23:44:00,
2013-07-29 18:45:00,94.3,66.3,29.80,SE,137,8.0,12.0,40,0.00,,,0.00,Wunderground v.1.15,2013-07-29 23:45:00,
2013-07-29 18:46:00,94.3,66.3,29.80,SE,134,8.0,12.0,40,0.00,,,0.00,Wunderground v.1.15,2013-07-29 23:46:00,
2013-07-29 18:52:00,93.8,67.2,29.80,SE,134,9.0,12.0,42,0.00,,,0.00,Wunderground v.1.15,2013-07-29 23:52:00,
2013-07-29 18:54:00,93.6,67.1,29.80,SSE,155,9.0,12.0,42,0.00,,,0.00,Wunderground v.1.15,2013-07-29 23:54:00,
2013-07-29 18:59:00,93.2,67.4,29.80,SE,141,9.0,16.0,43,0.00,,,0.00,Wunderground v.1.15,2013-07-29 23:59:00,
2013-07-29 19:01:00,93.2,67.4,29.80,SSE,152,10.0,10.0,43,0.00,,,0.00,Wunderground v.1.15,2013-07-30 00:01:00,
2013-07-29 19:05:00,92.9,67.8,29.81,SSE,152,10.0,13.0,44,0.00,,,0.00,Wunderground v.1.15,2013-07-30 00:05:00,
2013-07-29 19:06:00,92.9,67.8,29.81,SSE,165,10.0,13.0,44,0.00,,,0.00,Wunderground v.1.15,2013-07-30 00:06:00,
2013-07-29 19:09:00,92.7,67.6,29.81,ESE,116,9.0,13.0,44,0.00,,,0.00,Wunderground v.1.15,2013-07-30 00:09:00,
2013-07-29 19:10:00,92.5,67.4,29.81,SE,126,9.0,19.0,44,0.00,,,0.00,Wunderground v.1.15,2013-07-30 00:10:00,
2013-07-29 19:13:00,92.3,67.9,29.81,ESE,102,10.0,20.0,45,0.00,,,0.00,Wunderground v.1.15,2013-07-30 00:13:00,
2013-07-29 19:15:00,92.1,67.7,29.81,SE,133,10.0,20.0,45,0.00,,,0.00,Wunderground v.1.15,2013-07-30 00:15:00,
2013-07-29 19:16:00,92.1,67.7,29.81,ESE,117,10.0,20.0,45,0.00,,,0.00,Wunderground v.1.15,2013-07-30 00:16:00,
2013-07-29 19:20:00,91.6,67.3,29.82,SSE,157,11.0,20.0,45,0.00,,,0.00,Wunderground v.1.15,2013-07-30 00:20:00,
2013-07-29 19:21:00,91.6,67.3,29.82,SE,141,11.0,11.0,45,0.00,,,0.00,Wunderground v.1.15,2013-07-30 00:21:00,
2013-07-29 19:27:00,91.4,68.3,29.82,SE,140,10.0,14.0,47,0.00,,,0.00,Wunderground v.1.15,2013-07-30 00:27:00,
2013-07-29 19:32:00,91.0,68.0,29.82,SE,138,10.0,10.0,47,0.00,,,0.00,Wunderground v.1.15,2013-07-30 00:32:00,
2013-07-29 19:33:00,91.0,68.6,29.82,SE,140,10.0,10.0,48,0.00,,,0.00,Wunderground v.1.15,2013-07-30 00:33:00,
2013-07-29 19:35:00,91.0,68.0,29.82,SSE,154,10.0,14.0,47,0.00,,,0.00,Wunderground v.1.15,2013-07-30 00:35:00,
2013-07-29 19:38:00,90.7,68.3,29.82,SE,136,9.0,14.0,48,0.00,,,0.00,Wunderground v.1.15,2013-07-30 00:38:00,
2013-07-29 19:40:00,90.7,68.3,29.82,SSE,155,7.0,10.0,48,0.00,,,0.00,Wunderground v.1.15,2013-07-30 00:40:00,
2013-07-29 19:41:00,90.7,68.3,29.82,ESE,112,7.0,16.0,48,0.00,,,0.00,Wunderground v.1.15,2013-07-30 00:41:00,
2013-07-29 19:43:00,90.5,68.1,29.82,SSE,148,8.0,16.0,48,0.00,,,0.00,Wunderground v.1.15,2013-07-30 00:43:00,
2013-07-29 19:47:00,90.3,67.9,29.82,SE,136,8.0,16.0,48,0.00,,,0.00,Wunderground v.1.15,2013-07-30 00:47:00,
2013-07-29 19:48:00,90.1,68.4,29.82,SSE,158,9.0,16.0,49,0.00,,,0.00,Wunderground v.1.15,2013-07-30 00:48:00,
2013-07-29 19:52:00,89.9,68.2,29.82,ESE,107,10.0,13.0,49,0.00,,,0.00,Wunderground v.1.15,2013-07-30 00:52:00,
2013-07-29 19:54:00,89.7,68.6,29.82,SE,131,9.0,13.0,50,0.00,,,0.00,Wunderground v.1.15,2013-07-30 00:54:00,
2013-07-29 19:57:00,89.7,68.6,29.82,SSE,151,8.0,13.0,50,0.00,,,0.00,Wunderground v.1.15,2013-07-30 00:57:00,
2013-07-29 19:59:00,89.7,68.6,29.82,SE,136,8.0,16.0,50,0.00,,,0.00,Wunderground v.1.15,2013-07-30 00:59:00,
2013-07-29 20:01:00,89.5,68.4,29.82,SSE,154,8.0,13.0,50,0.00,,,0.00,Wunderground v.1.15,2013-07-30 01:01:00,
2013-07-29 20:06:00,89.3,68.8,29.82,SE,128,8.0,13.0,51,0.00,,,0.00,Wunderground v.1.15,2013-07-30 01:06:00,
2013-07-29 20:08:00,89.0,68.5,29.82,SE,130,9.0,13.0,51,0.00,,,0.00,Wunderground v.1.15,2013-07-30 01:08:00,
2013-07-29 20:09:00,89.0,68.5,29.82,SSE,157,9.0,13.0,51,0.00,,,0.00,Wunderground v.1.15,2013-07-30 01:09:00,
2013-07-29 20:11:00,89.0,68.5,29.82,ESE,123,8.0,12.0,51,0.00,,,0.00,Wunderground v.1.15,2013-07-30 01:11:00,
2013-07-29 20:14:00,88.8,68.9,29.82,ESE,106,8.0,12.0,52,0.00,,,0.00,Wunderground v.1.15,2013-07-30 01:14:00,
2013-07-29 20:17:00,88.6,68.7,29.84,SE,126,10.0,17.0,52,0.00,,,0.00,Wunderground v.1.15,2013-07-30 01:17:00,
2013-07-29 20:18:00,88.6,68.7,29.84,SE,130,9.0,17.0,52,0.00,,,0.00,Wunderground v.1.15,2013-07-30 01:18:00,
2013-07-29 20:19:00,88.6,68.7,29.84,SE,124,9.0,17.0,52,0.00,,,0.00,Wunderground v.1.15,2013-07-30 01:19:00,
2013-07-29 20:22:00,88.4,69.1,29.84,SSE,157,9.0,9.0,53,0.00,,,0.00,Wunderground v.1.15,2013-07-30 01:22:00,
2013-07-29 20:24:00,88.4,69.1,29.84,SE,140,8.0,9.0,53,0.00,,,0.00,Wunderground v.1.15,2013-07-30 01:24:00,
2013-07-29 20:25:00,88.4,69.1,29.84,SSE,160,7.0,9.0,53,0.00,,,0.00,Wunderground v.1.15,2013-07-30 01:25:00,
2013-07-29 20:28:00,88.2,69.5,29.84,SE,144,6.0,9.0,54,0.00,,,0.00,Wunderground v.1.15,2013-07-30 01:28:00,
2013-07-29 20:31:00,88.2,69.5,29.84,SE,124,4.0,10.0,54,0.00,,,0.00,Wunderground v.1.15,2013-07-30 01:31:00,
2013-07-29 20:33:00,88.0,69.3,29.85,SE,130,5.0,11.0,54,0.00,,,0.00,Wunderground v.1.15,2013-07-30 01:33:00,
2013-07-29 20:37:00,87.8,69.6,29.85,ESE,102,6.0,11.0,55,0.00,,,0.00,Wunderground v.1.15,2013-07-30 01:37:00,
2013-07-29 20:38:00,87.8,69.6,29.85,ESE,107,7.0,11.0,55,0.00,,,0.00,Wunderground v.1.15,2013-07-30 01:38:00,
2013-07-29 20:39:00,87.8,69.6,29.85,SE,126,7.0,11.0,55,0.00,,,0.00,Wunderground v.1.15,2013-07-30 01:39:00,
2013-07-29 20:44:00,87.6,70.0,29.85,SE,127,6.0,11.0,56,0.00,,,0.00,Wunderground v.1.15,2013-07-30 01:44:00,
2013-07-29 20:46:00,87.6,70.0,29.85,SE,141,6.0,13.0,56,0.00,,,0.00,Wunderground v.1.15,2013-07-30 01:46:00,
2013-07-29 20:48:00,87.4,69.8,29.85,SE,130,6.0,13.0,56,0.00,,,0.00,Wunderground v.1.15,2013-07-30 01:48:00,
2013-07-29 20:50:00,87.4,69.8,29.85,SE,133,7.0,13.0,56,0.00,,,0.00,Wunderground v.1.15,2013-07-30 01:50:00,
2013-07-29 20:52:00,87.2,70.1,29.85,SSE,147,7.0,7.0,57,0.00,,,0.00,Wunderground v.1.15,2013-07-30 01:52:00,
2013-07-29 20:53:00,87.2,70.1,29.85,SE,133,8.0,8.0,57,0.00,,,0.00,Wunderground v.1.15,2013-07-30 01:53:00,
2013-07-29 20:54:00,87.2,70.1,29.85,ESE,109,8.0,8.0,57,0.00,,,0.00,Wunderground v.1.15,2013-07-30 01:54:00,
2013-07-29 20:56:00,87.2,70.1,29.85,SE,133,8.0,12.0,57,0.00,,,0.00,Wunderground v.1.15,2013-07-30 01:56:00,
2013-07-29 20:57:00,87.0,70.4,29.85,ESE,114,8.0,14.0,58,0.00,,,0.00,Wunderground v.1.15,2013-07-30 01:57:00,
2013-07-29 21:02:00,86.7,70.7,29.86,SE,138,9.0,9.0,59,0.00,,,0.00,Wunderground v.1.15,2013-07-30 02:02:00,
2013-07-29 21:05:00,86.5,70.5,29.86,South,172,9.0,9.0,59,0.00,,,0.00,Wunderground v.1.15,2013-07-30 02:05:00,
2013-07-29 21:06:00,86.5,70.5,29.86,SE,131,8.0,9.0,59,0.00,,,0.00,Wunderground v.1.15,2013-07-30 02:06:00,
2013-07-29 21:07:00,86.5,70.5,29.86,ESE,116,9.0,9.0,59,0.00,,,0.00,Wunderground v.1.15,2013-07-30 02:07:00,
2013-07-29 21:09:00,86.3,70.3,29.86,ESE,114,8.0,9.0,59,0.00,,,0.00,Wunderground v.1.15,2013-07-30 02:09:00,
2013-07-29 21:12:00,86.1,70.6,29.86,South,176,7.0,8.0,60,0.00,,,0.00,Wunderground v.1.15,2013-07-30 02:12:00,
2013-07-29 21:13:00,86.1,70.6,29.86,ESE,120,7.0,8.0,60,0.00,,,0.00,Wunderground v.1.15,2013-07-30 02:13:00,
2013-07-29 21:18:00,85.9,70.9,29.87,SE,128,7.0,10.0,61,0.00,,,0.00,Wunderground v.1.15,2013-07-30 02:18:00,
2013-07-29 21:19:00,85.9,70.9,29.87,SSE,158,7.0,10.0,61,0.00,,,0.00,Wunderground v.1.15,2013-07-30 02:19:00,
2013-07-29 21:22:00,85.7,70.7,29.87,SSE,168,7.0,10.0,61,0.00,,,0.00,Wunderground v.1.15,2013-07-30 02:22:00,
2013-07-29 21:23:00,85.7,70.7,29.87,SSE,154,7.0,10.0,61,0.00,,,0.00,Wunderground v.1.15,2013-07-30 02:23:00,
2013-07-29 21:26:00,85.7,70.7,29.87,SE,131,6.0,10.0,61,0.00,,,0.00,Wunderground v.1.15,2013-07-30 02:26:00,
2013-07-29 21:27:00,85.7,71.2,29.87,SE,130,6.0,10.0,62,0.00,,,0.00,Wunderground v.1.15,2013-07-30 02:27:00,
2013-07-29 21:28:00,85.5,71.0,29.87,SE,140,5.0,10.0,62,0.00,,,0.00,Wunderground v.1.15,2013-07-30 02:28:00,
2013-07-29 21:29:00,85.5,71.0,29.87,SE,128,5.0,10.0,62,0.00,,,0.00,Wunderground v.1.15,2013-07-30 02:29:00,
2013-07-29 21:34:00,85.3,70.8,29.88,SSE,158,5.0,10.0,62,0.00,,,0.00,Wunderground v.1.15,2013-07-30 02:34:00,
2013-07-29 21:35:00,85.3,70.8,29.88,SSE,148,5.0,10.0,62,0.00,,,0.00,Wunderground v.1.15,2013-07-30 02:35:00,
2013-07-29 21:36:00,85.1,70.6,29.88,SSE,164,5.0,10.0,62,0.00,,,0.00,Wunderground v.1.15,2013-07-30 02:36:00,
2013-07-29 21:37:00,85.1,71.1,29.88,SE,124,5.0,10.0,63,0.00,,,0.00,Wunderground v.1.15,2013-07-30 02:37:00,
2013-07-29 21:41:00,84.9,70.9,29.88,SE,133,6.0,11.0,63,0.00,,,0.00,Wunderground v.1.15,2013-07-30 02:41:00,
2013-07-29 21:42:00,84.9,70.9,29.88,SE,131,6.0,11.0,63,0.00,,,0.00,Wunderground v.1.15,2013-07-30 02:42:00,
2013-07-29 21:43:00,84.9,71.4,29.88,SSE,155,6.0,11.0,64,0.00,,,0.00,Wunderground v.1.15,2013-07-30 02:43:00,
2013-07-29 21:46:00,84.7,71.2,29.88,SE,131,6.0,11.0,64,0.00,,,0.00,Wunderground v.1.15,2013-07-30 02:46:00,
2013-07-29 21:47:00,84.7,71.2,29.89,ESE,116,6.0,11.0,64,0.00,,,0.00,Wunderground v.1.15,2013-07-30 02:47:00,
2013-07-29 21:49:00,84.7,71.6,29.89,SE,124,7.0,11.0,65,0.00,,,0.00,Wunderground v.1.15,2013-07-30 02:49:00,
2013-07-29 21:51:00,84.5,71.4,29.89,South,178,7.0,7.0,65,0.00,,,0.00,Wunderground v.1.15,2013-07-30 02:51:00,
2013-07-29 21:52:00,84.5,71.4,29.89,SSE,161,7.0,13.0,65,0.00,,,0.00,Wunderground v.1.15,2013-07-30 02:52:00,
2013-07-29 21:55:00,84.3,71.2,29.89,SE,144,8.0,13.0,65,0.00,,,0.00,Wunderground v.1.15,2013-07-30 02:55:00,
2013-07-29 21:57:00,84.3,71.2,29.89,SE,145,7.0,13.0,65,0.00,,,0.00,Wunderground v.1.15,2013-07-30 02:57:00,
2013-07-29 22:01:00,84.1,71.5,29.89,SE,141,7.0,7.0,66,0.00,,,0.00,Wunderground v.1.15,2013-07-30 03:01:00,
2013-07-29 22:03:00,84.1,71.5,29.90,ESE,123,6.0,11.0,66,0.00,,,0.00,Wunderground v.1.15,2013-07-30 03:03:00,
2013-07-29 22:05:00,84.0,71.4,29.90,SE,126,6.0,11.0,66,0.00,,,0.00,Wunderground v.1.15,2013-07-30 03:05:00,
2013-07-29 22:08:00,84.0,71.4,29.90,SSE,152,6.0,11.0,66,0.00,,,0.00,Wunderground v.1.15,2013-07-30 03:08:00,
2013-07-29 22:09:00,84.0,71.4,29.90,SE,138,5.0,11.0,66,0.00,,,0.00,Wunderground v.1.15,2013-07-30 03:09:00,
2013-07-29 22:10:00,83.8,71.2,29.90,SE,136,5.0,11.0,66,0.00,,,0.00,Wunderground v.1.15,2013-07-30 03:10:00,
2013-07-29 22:14:00,83.8,71.7,29.90,SSE,165,4.0,6.0,67,0.00,,,0.00,Wunderground v.1.15,2013-07-30 03:14:00,
2013-07-29 22:16:00,83.6,71.5,29.90,SSE,168,4.0,6.0,67,0.00,,,0.00,Wunderground v.1.15,2013-07-30 03:16:00,
2013-07-29 22:18:00,83.6,71.5,29.91,SE,145,4.0,10.0,67,0.00,,,0.00,Wunderground v.1.15,2013-07-30 03:18:00,
2013-07-29 22:20:00,83.4,71.3,29.91,SE,126,6.0,10.0,67,0.00,,,0.00,Wunderground v.1.15,2013-07-30 03:20:00,
2013-07-29 22:21:00,83.4,71.3,29.91,SE,128,6.0,6.0,67,0.00,,,0.00,Wunderground v.1.15,2013-07-30 03:21:00,
2013-07-29 22:28:00,83.2,71.5,29.91,ESE,123,6.0,10.0,68,0.00,,,0.00,Wunderground v.1.15,2013-07-30 03:28:00,
2013-07-29 22:30:00,83.2,71.5,29.91,SSE,155,6.0,12.0,68,0.00,,,0.00,Wunderground v.1.15,2013-07-30 03:30:00,
2013-07-29 22:33:00,83.0,71.3,29.92,SE,138,6.0,8.0,68,0.00,,,0.00,Wunderground v.1.15,2013-07-30 03:33:00,
2013-07-29 22:36:00,83.0,71.8,29.92,SE,137,5.0,8.0,69,0.00,,,0.00,Wunderground v.1.15,2013-07-30 03:36:00,
2013-07-29 22:38:00,82.8,71.6,29.92,SE,144,6.0,11.0,69,0.00,,,0.00,Wunderground v.1.15,2013-07-30 03:38:00,
2013-07-29 22:40:00,82.8,71.6,29.92,ESE,120,5.0,11.0,69,0.00,,,0.00,Wunderground v.1.15,2013-07-30 03:40:00,
2013-07-29 22:42:00,82.8,71.6,29.92,SE,144,4.0,7.0,69,0.00,,,0.00,Wunderground v.1.15,2013-07-30 03:42:00,
2013-07-29 22:44:00,82.6,71.4,29.92,SE,137,4.0,7.0,69,0.00,,,0.00,Wunderground v.1.15,2013-07-30 03:44:00,
2013-07-29 22:48:00,82.6,71.4,29.92,SE,128,4.0,7.0,69,0.00,,,0.00,Wunderground v.1.15,2013-07-30 03:48:00,
2013-07-29 22:49:00,82.4,71.2,29.92,SE,131,4.0,7.0,69,0.00,,,0.00,Wunderground v.1.15,2013-07-30 03:49:00,
2013-07-29 22:51:00,82.2,71.0,29.92,ESE,112,5.0,6.0,69,0.00,,,0.00,Wunderground v.1.15,2013-07-30 03:51:00,
2013-07-29 22:52:00,82.2,71.4,29.92,SSE,147,6.0,6.0,70,0.00,,,0.00,Wunderground v.1.15,2013-07-30 03:52:00,
2013-07-29 22:53:00,82.2,71.4,29.92,SSW,195,6.0,9.0,70,0.00,,,0.00,Wunderground v.1.15,2013-07-30 03:53:00,
2013-07-29 23:00:00,82.0,71.2,29.92,ESE,119,5.0,5.0,70,0.00,,,0.00,Wunderground v.1.15,2013-07-30 04:00:00,
2013-07-29 23:01:00,81.8,71.1,29.92,SE,134,5.0,5.0,70,0.00,,,0.00,Wunderground v.1.15,2013-07-30 04:01:00,
2013-07-29 23:03:00,81.8,71.1,29.92,ESE,121,5.0,11.0,70,0.00,,,0.00,Wunderground v.1.15,2013-07-30 04:03:00,
2013-07-29 23:05:00,81.6,71.3,29.92,SE,127,6.0,11.0,71,0.00,,,0.00,Wunderground v.1.15,2013-07-30 04:05:00,
2013-07-29 23:06:00,81.6,71.3,29.92,SE,124,7.0,11.0,71,0.00,,,0.00,Wunderground v.1.15,2013-07-30 04:06:00,
2013-07-29 23:07:00,81.4,71.1,29.92,SE,144,7.0,11.0,71,0.00,,,0.00,Wunderground v.1.15,2013-07-30 04:07:00,
2013-07-29 23:10:00,81.2,70.9,29.92,SSE,151,8.0,8.0,71,0.00,,,0.00,Wunderground v.1.15,2013-07-30 04:10:00,
2013-07-29 23:11:00,81.2,70.9,29.92,SE,130,8.0,8.0,71,0.00,,,0.00,Wunderground v.1.15,2013-07-30 04:11:00,
2013-07-29 23:13:00,81.1,70.8,29.92,SE,124,8.0,8.0,71,0.00,,,0.00,Wunderground v.1.15,2013-07-30 04:13:00,
2013-07-29 23:14:00,81.1,71.2,29.92,ESE,119,8.0,8.0,72,0.00,,,0.00,Wunderground v.1.15,2013-07-30 04:14:00,
2013-07-29 23:16:00,81.1,71.2,29.92,SE,128,7.0,9.0,72,0.00,,,0.00,Wunderground v.1.15,2013-07-30 04:16:00,
2013-07-29 23:18:00,81.1,71.2,29.90,SE,130,6.0,10.0,72,0.00,,,0.00,Wunderground v.1.15,2013-07-30 04:18:00,
2013-07-29 23:19:00,80.9,71.0,29.90,SE,144,7.0,10.0,72,0.00,,,0.00,Wunderground v.1.15,2013-07-30 04:19:00,
2013-07-29 23:20:00,80.9,71.0,29.90,SE,141,7.0,7.0,72,0.00,,,0.00,Wunderground v.1.15,2013-07-30 04:20:00,
2013-07-29 23:21:00,80.9,71.0,29.90,SE,134,7.0,7.0,72,0.00,,,0.00,Wunderground v.1.15,2013-07-30 04:21:00,
2013-07-29 23:26:00,80.7,70.8,29.90,SE,126,7.0,10.0,72,0.00,,,0.00,Wunderground v.1.15,2013-07-30 04:26:00,
2013-07-29 23:27:00,80.7,70.8,29.90,SE,124,7.0,10.0,72,0.00,,,0.00,Wunderground v.1.15,2013-07-30 04:27:00,
2013-07-29 23:28:00,80.5,70.6,29.90,SE,130,7.0,10.0,72,0.00,,,0.00,Wunderground v.1.15,2013-07-30 04:28:00,
2013-07-29 23:32:00,80.5,71.0,29.90,SE,144,6.0,9.0,73,0.00,,,0.00,Wunderground v.1.15,2013-07-30 04:32:00,
2013-07-29 23:33:00,80.5,71.0,29.90,SSE,162,6.0,9.0,73,0.00,,,0.00,Wunderground v.1.15,2013-07-30 04:33:00,
2013-07-29 23:34:00,80.5,71.0,29.90,SSE,158,6.0,9.0,73,0.00,,,0.00,Wunderground v.1.15,2013-07-30 04:34:00,
2013-07-29 23:35:00,80.3,70.9,29.90,ESE,120,7.0,9.0,73,0.00,,,0.00,Wunderground v.1.15,2013-07-30 04:35:00,
2013-07-29 23:40:00,80.1,70.7,29.90,SSE,154,7.0,9.0,73,0.00,,,0.00,Wunderground v.1.15,2013-07-30 04:40:00,
2013-07-29 23:43:00,80.1,70.7,29.90,ESE,109,7.0,11.0,73,0.00,,,0.00,Wunderground v.1.15,2013-07-30 04:43:00,
2013-07-29 23:44:00,80.1,70.7,29.90,SE,134,8.0,11.0,73,0.00,,,0.00,Wunderground v.1.15,2013-07-30 04:44:00,
2013-07-29 23:45:00,80.1,70.7,29.90,South,171,8.0,11.0,73,0.00,,,0.00,Wunderground v.1.15,2013-07-30 04:45:00,
2013-07-29 23:46:00,80.1,70.7,29.90,SE,140,7.0,11.0,73,0.00,,,0.00,Wunderground v.1.15,2013-07-30 04:46:00,
2013-07-29 23:50:00,79.9,70.9,29.90,SE,144,7.0,11.0,74,0.00,,,0.00,Wunderground v.1.15,2013-07-30 04:50:00,
2013-07-29 23:51:00,79.9,70.9,29.90,SE,144,7.0,11.0,74,0.00,,,0.00,Wunderground v.1.15,2013-07-30 04:51:00,
2013-07-29 23:55:00,79.8,70.8,29.90,ESE,110,7.0,11.0,74,0.00,,,0.00,Wunderground v.1.15,2013-07-30 04:55:00,
2013-07-29 23:56:00,79.8,70.8,29.90,SSE,152,8.0,11.0,74,0.00,,,0.00,Wunderground v.1.15,2013-07-30 04:56:00,
2013-07-29 23:59:00,79.6,71.0,29.90,SSE,147,7.0,13.0,75,0.00,,,0.00,Wunderground v.1.15,2013-07-30 04:59:00,